THY69 VTBS-LTFM

Flight info

Callsign THY69
Flight time N/A
Altitude 32000
Route TARED P646 BETNO G463 BGO L507 TEBOV/N0482F340 L507 CEA R460 LKN R594 JAL M890 SULOM T400 BTR/N0471F360 T400 NONIB L509 HANGU G325 REGET N644 LEMOD A909 RODAR DCT ADEKI/N0467F380 DCT BADIR DCT LAGAS DCT NOLGA UG261 TBN UM11 CRM UM688 EKSUK UL852 EVPIM UT304 LUUPU UT310 NUGBA
Aircraft A333/H-SDE3GHIJ2J3J5M1RVWXY/LB2D1

Departure

Time 2026-05-04 21:55
Airport Suvarnabhumi Airport (VTBS)

Arrival

Time N/A
Airport İstanbul Airport (LTFM)
Time Latitude Longitude Altitude Speed Heading
2026-05-04 21:15 13.69123 100.74583 21 ft 0 kts 105°
2026-05-04 21:44 13.69125 100.74577 21 ft 2 kts 104°
2026-05-04 21:44 13.69128 100.74561 21 ft 2 kts 103°
2026-05-04 21:44 13.69132 100.74547 21 ft 2 kts 104°
2026-05-04 21:44 13.69135 100.74532 21 ft 2 kts 104°
2026-05-04 21:45 13.69139 100.74516 21 ft 2 kts 104°
2026-05-04 21:45 13.69144 100.74501 21 ft 2 kts 132°
2026-05-04 21:45 13.69156 100.74493 21 ft 2 kts 170°
2026-05-04 21:45 13.69167 100.74492 21 ft 0 kts 194°
2026-05-04 21:46 13.69172 100.74493 21 ft 0 kts 195°
2026-05-04 21:47 13.69171 100.74493 21 ft 0 kts 195°
2026-05-04 21:47 13.69142 100.74453 21 ft 11 kts 271°
2026-05-04 21:48 13.69168 100.74343 21 ft 19 kts 300°
2026-05-04 21:48 13.69290 100.74326 21 ft 18 kts 13°
2026-05-04 21:48 13.69409 100.74355 23 ft 16 kts 15°
2026-05-04 21:48 13.69542 100.74393 23 ft 22 kts 15°
2026-05-04 21:49 13.69712 100.74438 18 ft 27 kts 14°
2026-05-04 21:49 13.69878 100.74480 15 ft 11 kts 14°
2026-05-04 21:49 13.69944 100.74497 15 ft 9 kts 14°
2026-05-04 21:49 13.70050 100.74525 19 ft 20 kts 14°
2026-05-04 21:50 13.70161 100.74553 21 ft 7 kts 14°
2026-05-04 21:50 13.70264 100.74574 20 ft 21 kts 354°
2026-05-04 21:50 13.70326 100.74477 20 ft 10 kts 284°
2026-05-04 21:50 13.70328 100.74469 20 ft 0 kts 284°
2026-05-04 21:54 13.70338 100.74431 20 ft 16 kts 284°
2026-05-04 21:54 13.70306 100.74316 20 ft 22 kts 211°
2026-05-04 21:54 13.70005 100.74226 21 ft 71 kts 194°
2026-05-04 21:54 13.69358 100.74056 21 ft 118 kts 195°
2026-05-04 21:55 13.68410 100.73807 21 ft 158 kts 195°
2026-05-04 21:55 13.67248 100.73495 159 ft 177 kts 195°
2026-05-04 21:55 13.66067 100.73157 707 ft 175 kts 195°
2026-05-04 21:55 13.64913 100.72827 1091 ft 171 kts 193°
2026-05-04 21:56 13.63725 100.72509 1303 ft 179 kts 193°
2026-05-04 21:56 13.62516 100.72192 1696 ft 176 kts 193°
2026-05-04 21:56 13.61319 100.71880 2025 ft 177 kts 193°
2026-05-04 21:56 13.60106 100.71568 2345 ft 178 kts 192°
2026-05-04 21:57 13.58895 100.71257 2668 ft 180 kts 192°
2026-05-04 21:57 13.57650 100.70937 2863 ft 189 kts 192°
2026-05-04 21:57 13.56312 100.70594 3041 ft 201 kts 192°
2026-05-04 21:57 13.54911 100.70235 3204 ft 213 kts 192°
2026-05-04 21:58 13.53519 100.69540 3260 ft 234 kts 223°
2026-05-04 21:58 13.52633 100.68066 3444 ft 250 kts 255°
2026-05-04 21:58 13.52605 100.66229 3660 ft 268 kts 285°
2026-05-04 21:58 13.53421 100.64449 4016 ft 280 kts 297°
2026-05-04 21:59 13.54110 100.62552 4544 ft 285 kts 287°
2026-05-04 21:59 13.54657 100.60591 5163 ft 286 kts 287°
2026-05-04 21:59 13.55561 100.58774 5684 ft 288 kts 313°
2026-05-04 21:59 13.57162 100.57541 6217 ft 286 kts 339°
2026-05-04 22:00 13.59101 100.57149 6792 ft 282 kts
2026-05-04 22:00 13.61069 100.57290 7403 ft 282 kts
2026-05-04 22:00 13.63053 100.57358 7967 ft 285 kts
2026-05-04 22:00 13.65048 100.57416 8516 ft 287 kts
2026-05-04 22:01 13.67074 100.57470 9050 ft 289 kts
2026-05-04 22:01 13.69111 100.57525 9573 ft 291 kts
2026-05-04 22:01 13.71178 100.57579 10058 ft 294 kts
2026-05-04 22:01 13.73267 100.57635 10304 ft 307 kts
2026-05-04 22:02 13.75319 100.57690 10422 ft 322 kts
2026-05-04 22:02 13.77598 100.57591 10561 ft 338 kts 350°
2026-05-04 22:02 13.79863 100.56640 10714 ft 354 kts 329°
2026-05-04 22:02 13.81944 100.55214 10883 ft 365 kts 330°
2026-05-04 22:03 13.84164 100.53803 11066 ft 376 kts 330°
2026-05-04 22:03 13.86416 100.52383 11466 ft 378 kts 330°
2026-05-04 22:03 13.88694 100.50951 11892 ft 381 kts 330°
2026-05-04 22:03 13.90963 100.49522 12279 ft 383 kts 330°
2026-05-04 22:04 13.93051 100.47745 12596 ft 389 kts 311°
2026-05-04 22:04 13.94476 100.45348 12976 ft 393 kts 294°
2026-05-04 22:04 13.95106 100.42596 13304 ft 397 kts 274°
2026-05-04 22:04 13.95330 100.39776 13670 ft 398 kts 278°
2026-05-04 22:05 13.95711 100.36941 14066 ft 399 kts 278°
2026-05-04 22:05 13.96112 100.34076 14434 ft 401 kts 278°
2026-05-04 22:05 13.96516 100.31226 14817 ft 401 kts 278°
2026-05-04 22:05 13.96918 100.28375 15179 ft 403 kts 278°
2026-05-04 22:06 13.97350 100.25494 15520 ft 404 kts 282°
2026-05-04 22:06 13.98381 100.22791 15802 ft 405 kts 301°
2026-05-04 22:06 13.99965 100.20369 16161 ft 406 kts 304°
2026-05-04 22:06 14.01562 100.17924 16504 ft 407 kts 304°
2026-05-04 22:07 14.03147 100.15488 16849 ft 408 kts 304°
2026-05-04 22:07 14.04758 100.13007 17177 ft 410 kts 303°
2026-05-04 22:07 14.06339 100.10571 17511 ft 411 kts 303°
2026-05-04 22:07 14.07954 100.08079 17783 ft 413 kts 303°
2026-05-04 22:08 14.09546 100.05624 18111 ft 414 kts 303°
2026-05-04 22:08 14.11167 100.03123 18406 ft 416 kts 303°
2026-05-04 22:08 14.12802 100.00599 18685 ft 417 kts 303°
2026-05-04 22:08 14.14418 99.98105 18969 ft 418 kts 303°
2026-05-04 22:09 14.16048 99.95586 19233 ft 420 kts 303°
2026-05-04 22:09 14.17687 99.93054 19492 ft 421 kts 303°
2026-05-04 22:09 14.19307 99.90550 19735 ft 423 kts 303°
2026-05-04 22:09 14.20954 99.88004 20009 ft 424 kts 303°
2026-05-04 22:10 14.22591 99.85471 20240 ft 425 kts 303°
2026-05-04 22:10 14.24256 99.82896 20475 ft 427 kts 303°
2026-05-04 22:10 14.25891 99.80367 20720 ft 427 kts 303°
2026-05-04 22:10 14.27549 99.77800 20926 ft 429 kts 303°
2026-05-04 22:11 14.29228 99.75201 21157 ft 430 kts 303°
2026-05-04 22:11 14.30891 99.72624 21390 ft 431 kts 303°
2026-05-04 22:11 14.32546 99.70061 21609 ft 432 kts 303°
2026-05-04 22:11 14.34230 99.67451 21801 ft 433 kts 303°
2026-05-04 22:12 14.35909 99.64848 21991 ft 434 kts 303°
2026-05-04 22:12 14.37590 99.62241 22199 ft 435 kts 303°
2026-05-04 22:12 14.39272 99.59631 22404 ft 436 kts 303°
2026-05-04 22:12 14.40948 99.57031 22606 ft 437 kts 303°
2026-05-04 22:13 14.42634 99.54413 22786 ft 438 kts 303°
2026-05-04 22:13 14.44276 99.51726 22980 ft 438 kts 298°
2026-05-04 22:13 14.45671 99.48942 23137 ft 439 kts 297°
2026-05-04 22:13 14.47090 99.46128 23312 ft 440 kts 297°
2026-05-04 22:14 14.48511 99.43312 23508 ft 441 kts 297°
2026-05-04 22:14 14.49934 99.40491 23719 ft 441 kts 297°
2026-05-04 22:14 14.51358 99.37669 23877 ft 442 kts 297°
2026-05-04 22:14 14.52786 99.34837 24086 ft 443 kts 297°
2026-05-04 22:15 14.54211 99.32010 24274 ft 443 kts 297°
2026-05-04 22:15 14.55631 99.29192 24433 ft 444 kts 297°
2026-05-04 22:15 14.57061 99.26354 24626 ft 445 kts 297°
2026-05-04 22:15 14.58490 99.23516 24796 ft 446 kts 297°
2026-05-04 22:16 14.59929 99.20658 24936 ft 448 kts 297°
2026-05-04 22:16 14.61377 99.17782 25126 ft 448 kts 297°
2026-05-04 22:16 14.62814 99.14925 25317 ft 448 kts 297°
2026-05-04 22:16 14.64277 99.12016 25458 ft 450 kts 297°
2026-05-04 22:17 14.65724 99.09136 25621 ft 451 kts 297°
2026-05-04 22:17 14.67159 99.06281 25790 ft 451 kts 297°
2026-05-04 22:17 14.68613 99.03387 25922 ft 453 kts 297°
2026-05-04 22:17 14.70080 99.00463 26073 ft 454 kts 297°
2026-05-04 22:18 14.71522 98.97592 26229 ft 454 kts 297°
2026-05-04 22:18 14.72992 98.94662 26404 ft 455 kts 297°
2026-05-04 22:18 14.74440 98.91774 26551 ft 455 kts 297°
2026-05-04 22:18 14.75903 98.88856 26702 ft 456 kts 297°
2026-05-04 22:19 14.77372 98.85925 26828 ft 457 kts 297°
2026-05-04 22:19 14.78840 98.82994 26975 ft 458 kts 297°
2026-05-04 22:19 14.80303 98.80073 27109 ft 459 kts 297°
2026-05-04 22:19 14.81768 98.77145 27235 ft 459 kts 297°
2026-05-04 22:20 14.83137 98.74410 27370 ft 460 kts 297°
2026-05-04 22:20 14.84607 98.71471 27492 ft 461 kts 297°
2026-05-04 22:20 14.86098 98.68489 27629 ft 461 kts 297°
2026-05-04 22:20 14.87573 98.65538 27761 ft 462 kts 297°
2026-05-04 22:21 14.89053 98.62575 27881 ft 462 kts 297°
2026-05-04 22:21 14.90539 98.59601 28000 ft 463 kts 297°
2026-05-04 22:21 14.92024 98.56625 28118 ft 463 kts 297°
2026-05-04 22:21 14.93501 98.53666 28237 ft 463 kts 297°
2026-05-04 22:22 14.94962 98.50736 28355 ft 463 kts 297°
2026-05-04 22:22 14.96461 98.47730 28475 ft 463 kts 297°
2026-05-04 22:22 14.97925 98.44793 28593 ft 464 kts 297°
2026-05-04 22:22 14.99423 98.41785 28714 ft 464 kts 297°
2026-05-04 22:23 15.00895 98.38831 28840 ft 464 kts 297°
2026-05-04 22:23 15.02368 98.35872 28958 ft 464 kts 297°
2026-05-04 22:23 15.03849 98.32895 29083 ft 464 kts 297°
2026-05-04 22:23 15.05349 98.29880 29212 ft 464 kts 297°
2026-05-04 22:24 15.06819 98.26924 29338 ft 464 kts 297°
2026-05-04 22:24 15.08316 98.23911 29465 ft 464 kts 297°
2026-05-04 22:24 15.10003 98.21072 29566 ft 464 kts 309°
2026-05-04 22:24 15.12355 98.18786 29699 ft 464 kts 322°
2026-05-04 22:25 15.14920 98.16766 29857 ft 463 kts 321°
2026-05-04 22:25 15.17498 98.14701 29984 ft 464 kts 321°
2026-05-04 22:25 15.20043 98.12656 30112 ft 464 kts 321°
2026-05-04 22:25 15.22632 98.10573 30237 ft 464 kts 321°
2026-05-04 22:26 15.25165 98.08535 30364 ft 464 kts 321°
2026-05-04 22:26 15.27717 98.06479 30489 ft 464 kts 321°
2026-05-04 22:26 15.30300 98.04398 30614 ft 464 kts 321°
2026-05-04 22:26 15.32854 98.02340 30740 ft 463 kts 321°
2026-05-04 22:27 15.35423 98.00269 30866 ft 463 kts 321°
2026-05-04 22:27 15.37973 97.98214 30991 ft 463 kts 321°
2026-05-04 22:27 15.40501 97.96175 31115 ft 462 kts 321°
2026-05-04 22:27 15.43068 97.94102 31242 ft 462 kts 321°
2026-05-04 22:28 15.45617 97.92046 31365 ft 462 kts 321°
2026-05-04 22:28 15.48169 97.89985 31489 ft 462 kts 321°
2026-05-04 22:28 15.50698 97.87942 31613 ft 461 kts 321°
2026-05-04 22:28 15.53260 97.85873 31742 ft 461 kts 320°
2026-05-04 22:29 15.55797 97.83822 31867 ft 461 kts 320°
2026-05-04 22:29 15.58321 97.81782 31992 ft 460 kts 321°
2026-05-04 22:29 15.60863 97.79726 32117 ft 460 kts 320°
2026-05-04 22:29 15.63422 97.77656 32241 ft 460 kts 320°
2026-05-04 22:30 15.65963 97.75600 32366 ft 460 kts 321°
2026-05-04 22:30 15.68478 97.73564 32492 ft 459 kts 320°
2026-05-04 22:30 15.71025 97.71502 32627 ft 459 kts 320°
2026-05-04 22:30 15.73563 97.69445 32767 ft 459 kts 320°
2026-05-04 22:31 15.76064 97.67419 32905 ft 459 kts 320°
2026-05-04 22:31 15.78616 97.65350 33044 ft 458 kts 320°
2026-05-04 22:31 15.81134 97.63309 33180 ft 458 kts 320°
2026-05-04 22:31 15.83658 97.61261 33322 ft 458 kts 320°
2026-05-04 22:32 15.86185 97.59212 33461 ft 457 kts 320°
2026-05-04 22:32 15.88697 97.57172 33602 ft 457 kts 320°
2026-05-04 22:32 15.91210 97.55132 33736 ft 456 kts 320°
2026-05-04 22:32 15.93796 97.53171 33847 ft 458 kts 324°
2026-05-04 22:33 15.96419 97.51288 33819 ft 461 kts 323°
2026-05-04 22:33 16.01728 97.47435 33836 ft 464 kts 323°
2026-05-04 22:34 16.07086 97.43537 33829 ft 467 kts 323°
2026-05-04 22:34 16.12488 97.39605 33829 ft 469 kts 323°
2026-05-04 22:35 16.17882 97.35675 33823 ft 471 kts 323°
2026-05-04 22:35 16.23280 97.31739 33829 ft 472 kts 323°
2026-05-04 22:36 16.28716 97.27773 33834 ft 472 kts 323°
2026-05-04 22:36 16.34079 97.23858 33832 ft 468 kts 323°
2026-05-04 22:37 16.39434 97.19946 33825 ft 466 kts 323°
2026-05-04 22:37 16.44789 97.16032 33820 ft 467 kts 323°
2026-05-04 22:38 16.50134 97.12121 33824 ft 467 kts 323°
2026-05-04 22:38 16.55466 97.08218 33825 ft 466 kts 323°
2026-05-04 22:39 16.60782 97.04324 33823 ft 465 kts 323°
2026-05-04 22:39 16.66127 97.00405 33824 ft 466 kts 323°
2026-05-04 22:40 16.71462 96.96492 33819 ft 466 kts 323°
2026-05-04 22:40 16.76791 96.92580 33817 ft 466 kts 323°
2026-05-04 22:41 16.82115 96.88669 33819 ft 465 kts 323°
2026-05-04 22:41 16.87423 96.84766 33823 ft 466 kts 323°
2026-05-04 22:42 16.92755 96.80843 33822 ft 465 kts 323°
2026-05-04 22:42 16.98092 96.76915 33827 ft 465 kts 323°
2026-05-04 22:43 17.03379 96.73020 33825 ft 465 kts 323°
2026-05-04 22:43 17.08725 96.69080 33825 ft 465 kts 323°
2026-05-04 22:44 17.14067 96.65139 33828 ft 465 kts 323°
2026-05-04 22:44 17.19367 96.61225 33827 ft 465 kts 323°
2026-05-04 22:45 17.24707 96.57280 33830 ft 465 kts 323°
2026-05-04 22:45 17.32509 96.51198 33807 ft 461 kts 310°
2026-05-04 22:46 17.36362 96.45798 33821 ft 462 kts 305°
2026-05-04 22:46 17.40235 96.40399 33836 ft 462 kts 306°
2026-05-04 22:47 17.44121 96.35010 33836 ft 461 kts 306°
2026-05-04 22:47 17.48020 96.29600 33839 ft 461 kts 306°
2026-05-04 22:48 17.51900 96.24213 33843 ft 461 kts 306°
2026-05-04 22:48 17.55778 96.18825 33841 ft 462 kts 306°
2026-05-04 22:49 17.59656 96.13433 33850 ft 461 kts 306°
2026-05-04 22:49 17.63534 96.08037 33843 ft 462 kts 306°
2026-05-04 22:50 17.67419 96.02625 33838 ft 462 kts 306°
2026-05-04 22:50 17.71302 95.97213 33840 ft 462 kts 306°
2026-05-04 22:51 17.75184 95.91796 33841 ft 462 kts 306°
2026-05-04 22:51 17.79061 95.86385 33840 ft 462 kts 306°
2026-05-04 22:52 17.82940 95.80965 33848 ft 462 kts 306°
2026-05-04 22:52 17.86821 95.75536 33845 ft 462 kts 306°
2026-05-04 22:53 17.90726 95.70071 33850 ft 462 kts 306°
2026-05-04 22:53 17.94610 95.64631 33846 ft 462 kts 306°
2026-05-04 22:54 17.98484 95.59199 33851 ft 462 kts 306°
2026-05-04 22:54 18.02344 95.53783 33852 ft 462 kts 306°
2026-05-04 22:55 18.06236 95.48318 33848 ft 462 kts 306°
2026-05-04 22:55 18.10114 95.42867 33850 ft 462 kts 306°
2026-05-04 22:56 18.13986 95.37421 33848 ft 462 kts 306°
2026-05-04 22:56 18.17862 95.31964 33863 ft 462 kts 306°
2026-05-04 22:57 18.21727 95.26518 33854 ft 462 kts 306°
2026-05-04 22:57 18.25612 95.21040 33851 ft 462 kts 306°
2026-05-04 22:58 18.29472 95.15592 33867 ft 463 kts 306°
2026-05-04 22:58 18.33195 95.10023 33869 ft 461 kts 303°
2026-05-04 22:59 18.36871 95.04441 33870 ft 462 kts 303°
2026-05-04 22:59 18.40574 94.98819 33866 ft 462 kts 303°
2026-05-04 23:00 18.44233 94.93258 33876 ft 461 kts 303°
2026-05-04 23:00 18.47928 94.87640 33907 ft 461 kts 303°
2026-05-04 23:01 18.51586 94.82072 33939 ft 461 kts 303°
2026-05-04 23:01 18.55248 94.76493 33969 ft 461 kts 303°
2026-05-04 23:02 18.58960 94.70893 33971 ft 461 kts 305°
2026-05-04 23:02 18.62743 94.65414 33952 ft 461 kts 305°
2026-05-04 23:03 18.66538 94.59901 33927 ft 461 kts 305°
2026-05-04 23:03 18.70303 94.54424 33914 ft 461 kts 304°
2026-05-04 23:04 18.74101 94.48897 33900 ft 460 kts 304°
2026-05-04 23:04 18.77865 94.43412 33884 ft 460 kts 304°
2026-05-04 23:05 18.81636 94.37914 33870 ft 460 kts 304°
2026-05-04 23:05 18.85409 94.32408 33866 ft 459 kts 304°
2026-05-04 23:06 18.89179 94.26900 33849 ft 459 kts 304°
2026-05-04 23:06 18.92931 94.21415 33836 ft 459 kts 304°
2026-05-04 23:07 18.96673 94.15938 33842 ft 459 kts 304°
2026-05-04 23:07 19.00432 94.10433 33844 ft 459 kts 304°
2026-05-04 23:08 19.04176 94.04945 33835 ft 459 kts 304°
2026-05-04 23:08 19.07940 93.99423 33841 ft 458 kts 304°
2026-05-04 23:09 19.11670 93.93945 33848 ft 458 kts 304°
2026-05-04 23:09 19.15429 93.88421 33845 ft 458 kts 304°
2026-05-04 23:10 19.19164 93.82927 33850 ft 457 kts 304°
2026-05-04 23:10 19.22870 93.77468 33848 ft 457 kts 304°
2026-05-04 23:11 19.26598 93.71973 33846 ft 457 kts 304°
2026-05-04 23:11 19.30339 93.66455 33842 ft 457 kts 304°
2026-05-04 23:12 19.34043 93.60987 33845 ft 456 kts 304°
2026-05-04 23:12 19.37750 93.55509 33845 ft 456 kts 304°
2026-05-04 23:13 19.41457 93.50026 33846 ft 456 kts 304°
2026-05-04 23:13 19.45158 93.44548 33848 ft 456 kts 304°
2026-05-04 23:14 19.48871 93.39046 33848 ft 456 kts 304°
2026-05-04 23:14 19.52568 93.33563 33849 ft 456 kts 303°
2026-05-04 23:15 19.56256 93.28088 33853 ft 456 kts 303°
2026-05-04 23:15 19.59946 93.22606 33857 ft 456 kts 303°
2026-05-04 23:16 19.63628 93.17130 33852 ft 455 kts 303°
2026-05-04 23:16 19.67327 93.11624 33856 ft 455 kts 303°
2026-05-04 23:17 19.70997 93.06157 33857 ft 455 kts 303°
2026-05-04 23:17 19.74674 93.00675 33856 ft 455 kts 303°
2026-05-04 23:18 19.78373 92.95155 33860 ft 455 kts 303°
2026-05-04 23:18 19.82046 92.89667 33857 ft 455 kts 303°
2026-05-04 23:19 19.85726 92.84164 33859 ft 455 kts 303°
2026-05-04 23:19 19.89382 92.78693 33860 ft 455 kts 303°
2026-05-04 23:20 19.93054 92.73191 33855 ft 455 kts 303°
2026-05-04 23:20 19.96726 92.67686 33861 ft 455 kts 303°
2026-05-04 23:21 20.00403 92.62168 33861 ft 455 kts 303°
2026-05-04 23:21 20.04073 92.56654 33861 ft 454 kts 303°
2026-05-04 23:22 20.07739 92.51141 33860 ft 455 kts 303°
2026-05-04 23:22 20.11403 92.45628 33861 ft 455 kts 303°
2026-05-04 23:23 20.15057 92.40123 33860 ft 455 kts 303°
2026-05-04 23:23 20.18730 92.34583 33859 ft 455 kts 302°
2026-05-04 23:24 20.22377 92.29080 33862 ft 455 kts 302°
2026-05-04 23:24 20.26022 92.23574 33866 ft 454 kts 302°
2026-05-04 23:25 20.29680 92.18041 33868 ft 454 kts 302°
2026-05-04 23:25 20.33322 92.12530 33867 ft 455 kts 302°
2026-05-04 23:26 20.36964 92.07014 33865 ft 455 kts 302°
2026-05-04 23:26 20.40622 92.01466 33867 ft 455 kts 302°
2026-05-04 23:27 20.44225 91.95937 33866 ft 454 kts 301°
2026-05-04 23:27 20.47836 91.90358 33858 ft 454 kts 301°
2026-05-04 23:28 20.51425 91.84812 33861 ft 455 kts 301°
2026-05-04 23:28 20.55025 91.79242 33864 ft 455 kts 301°
2026-05-04 23:29 20.58628 91.73662 33861 ft 455 kts 301°
2026-05-04 23:29 20.62218 91.68097 33859 ft 455 kts 301°
2026-05-04 23:30 20.65800 91.62537 33859 ft 455 kts 301°
2026-05-04 23:30 20.69386 91.56969 33857 ft 454 kts 301°
2026-05-04 23:31 20.72974 91.51389 33858 ft 455 kts 301°
2026-05-04 23:31 20.76568 91.45797 33861 ft 455 kts 301°
2026-05-04 23:32 20.80159 91.40203 33859 ft 454 kts 301°
2026-05-04 23:32 20.83726 91.34641 33859 ft 454 kts 301°
2026-05-04 23:33 20.87311 91.29047 33862 ft 455 kts 301°
2026-05-04 23:33 20.90885 91.23461 33863 ft 454 kts 301°
2026-05-04 23:34 20.94461 91.17869 33866 ft 454 kts 301°
2026-05-04 23:34 20.98013 91.12310 33866 ft 454 kts 301°
2026-05-04 23:35 21.01599 91.06690 33863 ft 454 kts 301°
2026-05-04 23:35 21.05146 91.01126 33861 ft 454 kts 301°
2026-05-04 23:36 21.08711 90.95528 33862 ft 455 kts 301°
2026-05-04 23:36 21.12289 90.89906 33859 ft 455 kts 301°
2026-05-04 23:37 21.15875 90.84264 33857 ft 455 kts 301°
2026-05-04 23:37 21.19427 90.78670 33855 ft 455 kts 301°
2026-05-04 23:38 21.23015 90.73014 33854 ft 456 kts 301°
2026-05-04 23:38 21.26565 90.67412 33857 ft 456 kts 301°
2026-05-04 23:39 21.30135 90.61774 33850 ft 456 kts 301°
2026-05-04 23:39 21.33719 90.56107 33853 ft 456 kts 301°
2026-05-04 23:40 21.37303 90.50440 33971 ft 454 kts 301°
2026-05-04 23:40 21.39061 90.47659 34356 ft 448 kts 301°
2026-05-04 23:40 21.40810 90.44889 34597 ft 445 kts 301°
2026-05-04 23:41 21.42559 90.42118 34739 ft 444 kts 301°
2026-05-04 23:41 21.44299 90.39362 34871 ft 444 kts 301°
2026-05-04 23:41 21.46032 90.36613 35005 ft 444 kts 301°
2026-05-04 23:41 21.47771 90.33856 35149 ft 443 kts 300°
2026-05-04 23:42 21.49522 90.31078 35308 ft 442 kts 300°
2026-05-04 23:42 21.51240 90.28349 35453 ft 442 kts 300°
2026-05-04 23:42 21.52962 90.25615 35602 ft 441 kts 300°
2026-05-04 23:42 21.54714 90.22829 35753 ft 441 kts 300°
2026-05-04 23:43 21.56453 90.20064 35868 ft 441 kts 300°
2026-05-04 23:43 21.58158 90.17351 35826 ft 444 kts 300°
2026-05-04 23:43 21.61648 90.11795 35848 ft 448 kts 300°
2026-05-04 23:44 21.65157 90.06202 35847 ft 450 kts 300°
2026-05-04 23:44 21.68702 90.00546 35847 ft 452 kts 300°
2026-05-04 23:45 21.72235 89.94906 35840 ft 454 kts 300°
2026-05-04 23:45 21.75777 89.89243 35837 ft 455 kts 300°
2026-05-04 23:46 21.79294 89.83613 35835 ft 456 kts 300°
2026-05-04 23:46 21.82842 89.77930 35834 ft 456 kts 300°
2026-05-04 23:47 21.86394 89.72234 35835 ft 457 kts 300°
2026-05-04 23:47 21.89924 89.66567 35831 ft 454 kts 300°
2026-05-04 23:48 21.93437 89.60923 35831 ft 453 kts 300°
2026-05-04 23:48 21.96942 89.55285 35831 ft 454 kts 300°
2026-05-04 23:49 22.00457 89.49623 35830 ft 454 kts 300°
2026-05-04 23:49 22.03978 89.43947 35831 ft 454 kts 300°
2026-05-04 23:50 22.07470 89.38313 35828 ft 454 kts 300°
2026-05-04 23:50 22.10979 89.32644 35835 ft 454 kts 300°
2026-05-04 23:51 22.14511 89.26932 35824 ft 454 kts 300°
2026-05-04 23:51 22.18005 89.21275 35825 ft 453 kts 300°
2026-05-04 23:52 22.21524 89.15572 35824 ft 454 kts 300°
2026-05-04 23:52 22.25024 89.09896 35820 ft 454 kts 299°
2026-05-04 23:53 22.28532 89.04196 35822 ft 453 kts 300°
2026-05-04 23:53 22.32102 88.98587 35823 ft 455 kts 302°
2026-05-04 23:54 22.35826 88.93002 35821 ft 455 kts 301°
2026-05-04 23:54 22.39504 88.87459 35820 ft 454 kts 301°
2026-05-04 23:55 22.43190 88.81892 35820 ft 455 kts 301°
2026-05-04 23:56 22.48741 88.73498 35826 ft 454 kts 301°
2026-05-04 23:56 22.52411 88.67944 35833 ft 454 kts 301°
2026-05-04 23:57 22.56095 88.62360 35835 ft 454 kts 301°
2026-05-04 23:57 22.59784 88.56764 35847 ft 453 kts 301°
2026-05-04 23:58 22.63470 88.51165 35849 ft 453 kts 301°
2026-05-04 23:58 22.67144 88.45581 35849 ft 453 kts 301°
2026-05-04 23:59 22.70536 88.39819 35855 ft 451 kts 297°
2026-05-04 23:59 22.73869 88.33976 35848 ft 451 kts 297°
2026-05-05 00:00 22.77187 88.28182 35842 ft 451 kts 297°
2026-05-05 00:00 22.80516 88.22362 35836 ft 450 kts 297°
2026-05-05 00:01 22.83832 88.16561 35841 ft 450 kts 297°
2026-05-05 00:01 22.87131 88.10784 35830 ft 450 kts 297°
2026-05-05 00:02 22.90455 88.04954 35826 ft 449 kts 297°
2026-05-05 00:02 22.93755 87.99161 35826 ft 449 kts 297°
2026-05-05 00:03 22.97033 87.93399 35824 ft 449 kts 297°
2026-05-05 00:03 23.00343 87.87577 35822 ft 450 kts 297°
2026-05-05 00:04 23.03635 87.81779 35822 ft 450 kts 297°
2026-05-05 00:04 23.06925 87.75977 35823 ft 449 kts 297°
2026-05-05 00:05 23.10218 87.70165 35829 ft 449 kts 297°
2026-05-05 00:05 23.13521 87.64325 35827 ft 449 kts 297°
2026-05-05 00:06 23.16812 87.58501 35824 ft 449 kts 297°
2026-05-05 00:06 23.20088 87.52698 35823 ft 449 kts 297°
2026-05-05 00:07 23.23382 87.46858 35822 ft 449 kts 297°
2026-05-05 00:07 23.26646 87.41063 35818 ft 449 kts 297°
2026-05-05 00:08 23.29917 87.35249 35826 ft 449 kts 297°
2026-05-05 00:08 23.33216 87.29378 35839 ft 450 kts 296°
2026-05-05 00:09 23.36494 87.23537 35841 ft 449 kts 296°
2026-05-05 00:09 23.39742 87.17744 35842 ft 449 kts 296°
2026-05-05 00:10 23.43010 87.11906 35837 ft 449 kts 296°
2026-05-05 00:10 23.46282 87.06055 35845 ft 449 kts 296°
2026-05-05 00:11 23.49560 87.00198 35841 ft 449 kts 296°
2026-05-05 00:11 23.52828 86.94360 35844 ft 448 kts 296°
2026-05-05 00:12 23.56072 86.88556 35847 ft 449 kts 296°
2026-05-05 00:12 23.59353 86.82679 35843 ft 448 kts 296°
2026-05-05 00:13 23.62616 86.76829 35850 ft 448 kts 296°
2026-05-05 00:13 23.65853 86.71018 35841 ft 448 kts 296°
2026-05-05 00:14 23.69105 86.65172 35843 ft 448 kts 296°
2026-05-05 00:14 23.72355 86.59323 35848 ft 448 kts 296°
2026-05-05 00:15 23.75603 86.53471 35855 ft 448 kts 296°
2026-05-05 00:15 23.78857 86.47604 35855 ft 448 kts 296°
2026-05-05 00:16 23.82136 86.41807 35849 ft 450 kts 300°
2026-05-05 00:16 23.85763 86.36161 35854 ft 451 kts 299°
2026-05-05 00:17 23.89364 86.30474 35877 ft 451 kts 298°
2026-05-05 00:17 23.92950 86.24796 35884 ft 450 kts 298°
2026-05-05 00:18 23.96505 86.19159 35883 ft 451 kts 298°
2026-05-05 00:18 24.00103 86.13446 35878 ft 451 kts 298°
2026-05-05 00:19 24.03667 86.07784 35880 ft 450 kts 298°
2026-05-05 00:19 24.07219 86.02132 35881 ft 449 kts 298°
2026-05-05 00:20 24.10795 85.96436 35881 ft 450 kts 298°
2026-05-05 00:20 24.14366 85.90741 35883 ft 450 kts 298°
2026-05-05 00:21 24.17912 85.85080 35882 ft 449 kts 298°
2026-05-05 00:21 24.21469 85.79396 35882 ft 449 kts 298°
2026-05-05 00:22 24.25025 85.73704 35881 ft 449 kts 298°
2026-05-05 00:22 24.28591 85.67992 35884 ft 450 kts 298°
2026-05-05 00:23 24.32128 85.62318 35886 ft 448 kts 298°
2026-05-05 00:23 24.35677 85.56622 35889 ft 448 kts 298°
2026-05-05 00:24 24.39191 85.50970 35886 ft 449 kts 298°
2026-05-05 00:24 24.42733 85.45270 35885 ft 448 kts 298°
2026-05-05 00:25 24.46269 85.39574 35881 ft 449 kts 298°
2026-05-05 00:25 24.49809 85.33862 35883 ft 448 kts 297°
2026-05-05 00:26 24.53333 85.28170 35876 ft 447 kts 297°
2026-05-05 00:26 24.56853 85.22479 35879 ft 448 kts 297°
2026-05-05 00:27 24.60389 85.16755 35878 ft 447 kts 297°
2026-05-05 00:27 24.63898 85.11066 35870 ft 447 kts 297°
2026-05-05 00:28 24.67405 85.05376 35870 ft 446 kts 297°
2026-05-05 00:28 24.70903 84.99695 35862 ft 446 kts 297°
2026-05-05 00:29 24.74324 84.93955 35848 ft 440 kts 291°
2026-05-05 00:29 24.76546 84.87694 35857 ft 436 kts 285°
2026-05-05 00:30 24.78722 84.81428 35864 ft 436 kts 285°
2026-05-05 00:30 24.80909 84.75169 35860 ft 435 kts 285°
2026-05-05 00:31 24.83098 84.68891 35854 ft 436 kts 285°
2026-05-05 00:31 24.85270 84.62659 35850 ft 434 kts 285°
2026-05-05 00:32 24.87451 84.56381 35854 ft 435 kts 285°
2026-05-05 00:32 24.89619 84.50140 35854 ft 436 kts 285°
2026-05-05 00:33 24.91785 84.43889 35846 ft 435 kts 285°
2026-05-05 00:33 24.93961 84.37611 35843 ft 435 kts 285°
2026-05-05 00:34 24.96137 84.31314 35854 ft 435 kts 284°
2026-05-05 00:34 24.98300 84.25045 35847 ft 434 kts 284°
2026-05-05 00:35 25.00453 84.18795 35839 ft 434 kts 284°
2026-05-05 00:35 25.02615 84.12509 35842 ft 435 kts 284°
2026-05-05 00:36 25.04760 84.06265 35841 ft 435 kts 284°
2026-05-05 00:36 25.06911 83.99990 35837 ft 434 kts 284°
2026-05-05 00:37 25.09062 83.93713 35839 ft 434 kts 284°
2026-05-05 00:37 25.11222 83.87390 35823 ft 436 kts 285°
2026-05-05 00:38 25.13368 83.81104 35821 ft 435 kts 284°
2026-05-05 00:38 25.15501 83.74844 35819 ft 434 kts 284°
2026-05-05 00:39 25.17638 83.68563 35826 ft 434 kts 284°
2026-05-05 00:39 25.19765 83.62300 35825 ft 435 kts 284°
2026-05-05 00:40 25.21909 83.55978 35819 ft 435 kts 284°
2026-05-05 00:40 25.24038 83.49688 35819 ft 434 kts 284°
2026-05-05 00:41 25.26156 83.43426 35818 ft 435 kts 284°
2026-05-05 00:41 25.28291 83.37099 35820 ft 434 kts 284°
2026-05-05 00:42 25.30415 83.30796 35835 ft 434 kts 284°
2026-05-05 00:42 25.32530 83.24510 35828 ft 434 kts 284°
2026-05-05 00:43 25.34633 83.18249 35827 ft 433 kts 284°
2026-05-05 00:43 25.36743 83.11956 35827 ft 434 kts 284°
2026-05-05 00:44 25.38856 83.05644 35821 ft 434 kts 284°
2026-05-05 00:44 25.40959 82.99352 35825 ft 434 kts 284°
2026-05-05 00:45 25.43068 82.93034 35823 ft 433 kts 284°
2026-05-05 00:45 25.45184 82.86756 35820 ft 436 kts 287°
2026-05-05 00:45 25.46701 82.83802 35810 ft 447 kts 299°
2026-05-05 00:46 25.48662 82.81080 35849 ft 449 kts 301°
2026-05-05 00:46 25.52480 82.75532 35819 ft 449 kts 300°
2026-05-05 00:47 25.56251 82.69965 35813 ft 447 kts 300°
2026-05-05 00:47 25.59983 82.64436 35809 ft 447 kts 300°
2026-05-05 00:48 25.63761 82.58839 35813 ft 449 kts 300°
2026-05-05 00:48 25.67518 82.53260 35811 ft 450 kts 299°
2026-05-05 00:49 25.71275 82.47675 35794 ft 447 kts 300°
2026-05-05 00:49 25.75026 82.42094 35801 ft 447 kts 300°
2026-05-05 00:50 25.78763 82.36526 35801 ft 448 kts 299°
2026-05-05 00:50 25.82517 82.30928 35810 ft 447 kts 299°
2026-05-05 00:51 25.86261 82.25338 35797 ft 446 kts 299°
2026-05-05 00:51 25.89984 82.19770 35802 ft 448 kts 299°
2026-05-05 00:52 25.93730 82.14165 35795 ft 449 kts 299°
2026-05-05 00:52 25.97461 82.08572 35800 ft 447 kts 299°
2026-05-05 00:53 26.01188 82.02979 35805 ft 449 kts 299°
2026-05-05 00:53 26.04913 81.97383 35800 ft 448 kts 299°
2026-05-05 00:54 26.08653 81.91756 35799 ft 448 kts 299°
2026-05-05 00:54 26.12383 81.86139 35783 ft 447 kts 299°
2026-05-05 00:55 26.16088 81.80553 35795 ft 448 kts 299°
2026-05-05 00:55 26.19808 81.74937 35803 ft 446 kts 299°
2026-05-05 00:56 26.23494 81.69363 35806 ft 447 kts 299°
2026-05-05 00:56 26.27207 81.63747 35805 ft 448 kts 299°
2026-05-05 00:57 26.30927 81.58109 35802 ft 446 kts 299°
2026-05-05 00:57 26.34622 81.52503 35806 ft 447 kts 299°
2026-05-05 00:58 26.38311 81.46897 35814 ft 447 kts 300°
2026-05-05 00:58 26.41997 81.41292 35814 ft 446 kts 299°
2026-05-05 00:59 26.45692 81.35667 35817 ft 446 kts 299°
2026-05-05 00:59 26.49387 81.30030 35838 ft 447 kts 299°
2026-05-05 01:00 26.53081 81.24390 35832 ft 447 kts 299°
2026-05-05 01:00 26.56766 81.18760 35836 ft 446 kts 299°
2026-05-05 01:01 26.60452 81.13119 35843 ft 447 kts 299°
2026-05-05 01:01 26.64137 81.07475 35848 ft 446 kts 299°
2026-05-05 01:02 26.67804 81.01846 35844 ft 447 kts 299°
2026-05-05 01:02 26.71474 80.96210 35847 ft 447 kts 299°
2026-05-05 01:03 26.75166 80.90531 35852 ft 445 kts 299°
2026-05-05 01:03 26.79139 80.85139 35874 ft 450 kts 304°
2026-05-05 01:04 26.83265 80.79778 35856 ft 450 kts 303°
2026-05-05 01:04 26.89408 80.71738 35852 ft 451 kts 303°
2026-05-05 01:05 26.93527 80.66338 35848 ft 449 kts 303°
2026-05-05 01:05 26.97603 80.60987 35841 ft 450 kts 303°
2026-05-05 01:06 27.01695 80.55606 35839 ft 450 kts 303°
2026-05-05 01:06 27.05805 80.50199 35837 ft 451 kts 303°
2026-05-05 01:07 27.09892 80.44810 35833 ft 450 kts 303°
2026-05-05 01:07 27.13994 80.39397 35831 ft 450 kts 303°
2026-05-05 01:08 27.18055 80.34032 35835 ft 450 kts 303°
2026-05-05 01:08 27.22149 80.28618 35840 ft 448 kts 303°
2026-05-05 01:09 27.26207 80.23243 35844 ft 449 kts 303°
2026-05-05 01:09 27.30281 80.17840 35843 ft 447 kts 303°
2026-05-05 01:10 27.34330 80.12463 35843 ft 447 kts 303°
2026-05-05 01:10 27.38368 80.07097 35845 ft 447 kts 303°
2026-05-05 01:11 27.42403 80.01726 35841 ft 446 kts 303°
2026-05-05 01:11 27.46442 79.96343 35846 ft 446 kts 303°
2026-05-05 01:12 27.50462 79.90979 35839 ft 445 kts 303°
2026-05-05 01:12 27.54502 79.85581 35843 ft 446 kts 304°
2026-05-05 01:13 27.58514 79.80216 35846 ft 443 kts 303°
2026-05-05 01:13 27.62520 79.74850 35837 ft 444 kts 304°
2026-05-05 01:14 27.66537 79.69464 35838 ft 443 kts 304°
2026-05-05 01:14 27.70574 79.64150 35836 ft 447 kts 308°
2026-05-05 01:15 27.75092 79.59219 35828 ft 449 kts 309°
2026-05-05 01:15 27.79532 79.54256 35834 ft 446 kts 308°
2026-05-05 01:16 27.83966 79.49278 35835 ft 445 kts 309°
2026-05-05 01:16 27.88388 79.44307 35830 ft 445 kts 309°
2026-05-05 01:17 27.92809 79.39328 35833 ft 446 kts 309°
2026-05-05 01:17 27.97248 79.34328 35837 ft 445 kts 308°
2026-05-05 01:18 28.01657 79.29350 35846 ft 444 kts 308°
2026-05-05 01:18 28.06054 79.24383 35841 ft 443 kts 308°
2026-05-05 01:19 28.10459 79.19398 35840 ft 441 kts 308°
2026-05-05 01:19 28.14829 79.14449 35852 ft 441 kts 309°
2026-05-05 01:20 28.19192 79.09506 35832 ft 439 kts 308°
2026-05-05 01:20 28.23558 79.04544 35835 ft 441 kts 309°
2026-05-05 01:21 28.27930 78.99577 35831 ft 439 kts 309°
2026-05-05 01:21 28.32302 78.94599 35840 ft 440 kts 309°
2026-05-05 01:22 28.36667 78.89627 35840 ft 440 kts 309°
2026-05-05 01:22 28.41014 78.84666 35838 ft 439 kts 309°
2026-05-05 01:23 28.45370 78.79689 35835 ft 440 kts 309°
2026-05-05 01:23 28.50155 78.75151 35853 ft 446 kts 317°
2026-05-05 01:24 28.55138 78.70859 35839 ft 447 kts 316°
2026-05-05 01:24 28.60128 78.66528 35839 ft 446 kts 316°
2026-05-05 01:25 28.65119 78.62186 35842 ft 446 kts 316°
2026-05-05 01:25 28.70085 78.57866 35845 ft 446 kts 316°
2026-05-05 01:26 28.75100 78.53494 35850 ft 446 kts 317°
2026-05-05 01:26 28.80076 78.49150 35844 ft 446 kts 317°
2026-05-05 01:27 28.85029 78.44826 35844 ft 446 kts 316°
2026-05-05 01:27 28.90010 78.40465 35842 ft 448 kts 316°
2026-05-05 01:28 28.95032 78.36066 35844 ft 447 kts 317°
2026-05-05 01:28 29.00010 78.31702 35858 ft 447 kts 316°
2026-05-05 01:29 29.04990 78.27329 35861 ft 446 kts 316°
2026-05-05 01:29 29.09966 78.22954 35864 ft 447 kts 316°
2026-05-05 01:30 29.14893 78.18617 35855 ft 447 kts 316°
2026-05-05 01:30 29.19875 78.14226 35864 ft 447 kts 316°
2026-05-05 01:31 29.24872 78.09815 35863 ft 448 kts 316°
2026-05-05 01:31 29.29854 78.05412 35857 ft 448 kts 316°
2026-05-05 01:32 29.34812 78.01027 35870 ft 447 kts 316°
2026-05-05 01:32 29.39800 77.96609 35864 ft 447 kts 316°
2026-05-05 01:33 29.44753 77.92215 35870 ft 448 kts 316°
2026-05-05 01:33 29.49720 77.87803 35869 ft 448 kts 317°
2026-05-05 01:34 29.54698 77.83375 35871 ft 448 kts 317°
2026-05-05 01:34 29.59675 77.78944 35863 ft 447 kts 317°
2026-05-05 01:35 29.64614 77.74543 35881 ft 447 kts 317°
2026-05-05 01:35 29.69586 77.70104 35883 ft 448 kts 317°
2026-05-05 01:36 29.74568 77.65652 35864 ft 448 kts 317°
2026-05-05 01:36 29.79510 77.61226 35876 ft 447 kts 317°
2026-05-05 01:37 29.84493 77.56760 35877 ft 448 kts 317°
2026-05-05 01:37 29.89442 77.52321 35858 ft 447 kts 317°
2026-05-05 01:38 29.94368 77.47894 35889 ft 448 kts 317°
2026-05-05 01:38 29.99404 77.43478 35870 ft 454 kts 322°
2026-05-05 01:39 30.05171 77.40147 35882 ft 458 kts 328°
2026-05-05 01:39 30.10905 77.36838 35895 ft 457 kts 328°
2026-05-05 01:40 30.16661 77.33493 35910 ft 457 kts 327°
2026-05-05 01:40 30.22282 77.30218 35914 ft 456 kts 327°
2026-05-05 01:41 30.28002 77.26881 35908 ft 458 kts 327°
2026-05-05 01:41 30.33751 77.23525 35933 ft 456 kts 327°
2026-05-05 01:42 30.39361 77.20023 35931 ft 450 kts 319°
2026-05-05 01:42 30.41682 77.17591 35944 ft 442 kts 306°
2026-05-05 01:42 30.43514 77.14708 35969 ft 438 kts 300°
2026-05-05 01:43 30.47176 77.08960 35952 ft 440 kts 302°
2026-05-05 01:43 30.50898 77.03256 35924 ft 438 kts 303°
2026-05-05 01:44 30.54603 76.97589 35929 ft 438 kts 303°
2026-05-05 01:44 30.58319 76.91895 35917 ft 439 kts 303°
2026-05-05 01:45 30.62042 76.86185 35905 ft 439 kts 303°
2026-05-05 01:45 30.65751 76.80490 35909 ft 438 kts 303°
2026-05-05 01:46 30.69068 76.74564 35891 ft 431 kts 289°
2026-05-05 01:46 30.71224 76.68012 35888 ft 434 kts 289°
2026-05-05 01:47 30.73456 76.61472 35902 ft 433 kts 289°
2026-05-05 01:47 30.75701 76.54916 35914 ft 431 kts 289°
2026-05-05 01:48 30.77930 76.48392 35899 ft 433 kts 289°
2026-05-05 01:48 30.80181 76.41797 35894 ft 433 kts 289°
2026-05-05 01:49 30.82409 76.35254 35892 ft 433 kts 289°
2026-05-05 01:49 30.84634 76.28710 35899 ft 432 kts 289°
2026-05-05 01:50 30.86855 76.22169 35874 ft 432 kts 289°
2026-05-05 01:50 30.89086 76.15577 35888 ft 433 kts 289°
2026-05-05 01:51 30.91305 76.09014 35859 ft 433 kts 289°
2026-05-05 01:51 30.93527 76.02428 35664 ft 432 kts 289°
2026-05-05 01:52 30.94637 75.99128 35909 ft 430 kts 289°
2026-05-05 01:52 30.95734 75.95867 35645 ft 438 kts 289°
2026-05-05 01:52 30.96857 75.92527 35945 ft 435 kts 289°
2026-05-05 01:52 30.97960 75.89243 35846 ft 436 kts 289°
2026-05-05 01:53 31.00181 75.82619 35860 ft 431 kts 289°
2026-05-05 01:53 31.02380 75.76050 35841 ft 433 kts 289°
2026-05-05 01:54 31.04575 75.69478 35832 ft 433 kts 289°
2026-05-05 01:54 31.06758 75.62929 35837 ft 434 kts 289°
2026-05-05 01:55 31.08963 75.56302 35835 ft 433 kts 289°
2026-05-05 01:55 31.11147 75.49725 35838 ft 433 kts 289°
2026-05-05 01:56 31.12991 75.42961 35843 ft 432 kts 285°
2026-05-05 01:56 31.14713 75.36165 35834 ft 432 kts 285°
2026-05-05 01:57 31.16433 75.29387 35846 ft 434 kts 285°
2026-05-05 01:57 31.18140 75.22638 35841 ft 433 kts 285°
2026-05-05 01:58 31.19857 75.15842 35832 ft 432 kts 285°
2026-05-05 01:58 31.21572 75.09036 35838 ft 433 kts 285°
2026-05-05 01:59 31.23271 75.02270 35824 ft 432 kts 285°
2026-05-05 01:59 31.24981 74.95451 35831 ft 433 kts 285°
2026-05-05 02:00 31.26675 74.88677 35824 ft 433 kts 285°
2026-05-05 02:00 31.28380 74.81838 35840 ft 432 kts 285°
2026-05-05 02:01 31.30067 74.75060 35845 ft 432 kts 285°
2026-05-05 02:01 31.31741 74.68313 36375 ft 422 kts 286°
2026-05-05 02:02 31.32560 74.65006 36702 ft 417 kts 285°
2026-05-05 02:02 31.33374 74.61727 36797 ft 418 kts 286°
2026-05-05 02:02 31.34430 74.58534 36921 ft 419 kts 295°
2026-05-05 02:02 31.35971 74.55604 37060 ft 420 kts 304°
2026-05-05 02:03 31.37891 74.52972 37196 ft 422 kts 311°
2026-05-05 02:03 31.40068 74.50628 37309 ft 424 kts 317°
2026-05-05 02:03 31.42486 74.48579 37440 ft 427 kts 323°
2026-05-05 02:03 31.44909 74.46589 37557 ft 424 kts 319°
2026-05-05 02:04 31.47257 74.44441 37680 ft 423 kts 317°
2026-05-05 02:04 31.49574 74.42257 37793 ft 422 kts 317°
2026-05-05 02:04 31.54215 74.37906 37836 ft 426 kts 319°
2026-05-05 02:05 31.58941 74.33571 37854 ft 429 kts 318°
2026-05-05 02:05 31.63681 74.29208 37864 ft 432 kts 318°
2026-05-05 02:06 31.68489 74.24775 37858 ft 435 kts 318°
2026-05-05 02:06 31.73294 74.20338 37861 ft 437 kts 318°
2026-05-05 02:07 31.78127 74.15871 37860 ft 438 kts 318°
2026-05-05 02:07 31.82982 74.11377 37860 ft 439 kts 318°
2026-05-05 02:08 31.87839 74.06979 37866 ft 439 kts 319°
2026-05-05 02:08 31.92768 74.02576 37860 ft 440 kts 319°
2026-05-05 02:09 31.97704 73.98160 37858 ft 440 kts 319°
2026-05-05 02:09 32.02650 73.93724 37861 ft 440 kts 319°
2026-05-05 02:10 32.07532 73.89342 37858 ft 440 kts 319°
2026-05-05 02:10 32.12447 73.84924 37869 ft 436 kts 319°
2026-05-05 02:11 32.17284 73.80570 37867 ft 434 kts 319°
2026-05-05 02:11 32.22172 73.76163 37867 ft 435 kts 319°
2026-05-05 02:12 32.29425 73.69615 37871 ft 435 kts 319°
2026-05-05 02:13 32.34290 73.65215 37873 ft 434 kts 319°
2026-05-05 02:13 32.39120 73.60838 37873 ft 434 kts 319°
2026-05-05 02:14 32.43939 73.56467 37875 ft 433 kts 319°
2026-05-05 02:14 32.48776 73.52074 37877 ft 433 kts 319°
2026-05-05 02:15 32.53614 73.47674 37879 ft 434 kts 319°
2026-05-05 02:15 32.58426 73.43292 37883 ft 433 kts 319°
2026-05-05 02:16 32.63266 73.38877 37893 ft 433 kts 319°
2026-05-05 02:16 32.68108 73.34455 37889 ft 433 kts 319°
2026-05-05 02:17 32.72912 73.30061 37911 ft 433 kts 319°
2026-05-05 02:17 32.77884 73.25895 37918 ft 438 kts 328°
2026-05-05 02:18 32.83539 73.22998 37926 ft 440 kts 332°
2026-05-05 02:18 32.89225 73.20048 37932 ft 441 kts 331°
2026-05-05 02:19 32.94897 73.17078 37935 ft 439 kts 331°
2026-05-05 02:19 33.00524 73.14123 37931 ft 440 kts 332°
2026-05-05 02:20 33.06244 73.11117 37932 ft 441 kts 332°
2026-05-05 02:20 33.11905 73.08136 37933 ft 440 kts 332°
2026-05-05 02:21 33.17527 73.05173 37934 ft 440 kts 332°
2026-05-05 02:21 33.23188 73.02183 37935 ft 440 kts 332°
2026-05-05 02:22 33.28860 72.99185 37936 ft 439 kts 332°
2026-05-05 02:22 33.34484 72.96208 37931 ft 440 kts 332°
2026-05-05 02:23 33.40125 72.93218 37937 ft 440 kts 332°
2026-05-05 02:23 33.45747 72.90131 37918 ft 436 kts 326°
2026-05-05 02:24 33.50391 72.85585 37941 ft 428 kts 308°
2026-05-05 02:24 33.53549 72.79492 37940 ft 427 kts 293°
2026-05-05 02:25 33.54974 72.72606 37941 ft 428 kts 275°
2026-05-05 02:25 33.54544 72.65405 37940 ft 431 kts 269°
2026-05-05 02:26 33.54370 72.58143 37934 ft 430 kts 272°
2026-05-05 02:26 33.54318 72.50942 37930 ft 429 kts 272°
2026-05-05 02:27 33.54279 72.43757 37926 ft 429 kts 272°
2026-05-05 02:27 33.54239 72.36555 37924 ft 429 kts 272°
2026-05-05 02:28 33.54194 72.29324 37931 ft 430 kts 271°
2026-05-05 02:28 33.54145 72.22118 37923 ft 430 kts 271°
2026-05-05 02:29 33.54092 72.14945 37910 ft 429 kts 271°
2026-05-05 02:29 33.54034 72.07690 37921 ft 430 kts 271°
2026-05-05 02:30 33.53973 72.00486 37920 ft 430 kts 271°
2026-05-05 02:30 33.53907 71.93220 37914 ft 430 kts 271°
2026-05-05 02:31 33.53836 71.85996 37914 ft 432 kts 271°
2026-05-05 02:31 33.53441 71.78783 37937 ft 431 kts 268°
2026-05-05 02:32 33.53005 71.71552 37937 ft 431 kts 269°
2026-05-05 02:32 33.52573 71.64316 37936 ft 432 kts 269°
2026-05-05 02:33 33.52138 71.57107 37949 ft 431 kts 269°
2026-05-05 02:33 33.51697 71.49880 37937 ft 432 kts 269°
2026-05-05 02:34 33.51252 71.42629 37949 ft 432 kts 269°
2026-05-05 02:34 33.50802 71.35396 37981 ft 432 kts 269°
2026-05-05 02:35 33.50351 71.28195 38016 ft 432 kts 269°
2026-05-05 02:35 33.49895 71.20983 38039 ft 432 kts 268°
2026-05-05 02:36 33.49430 71.13702 38027 ft 433 kts 269°
2026-05-05 02:36 33.48918 71.06495 38026 ft 434 kts 264°
2026-05-05 02:36 33.48086 71.02980 38036 ft 441 kts 251°
2026-05-05 02:37 33.46552 70.99704 38055 ft 450 kts 239°
2026-05-05 02:37 33.44428 70.96884 38050 ft 460 kts 227°
2026-05-05 02:37 33.41766 70.94651 38055 ft 471 kts 214°
2026-05-05 02:38 33.35883 70.91024 38030 ft 471 kts 217°
2026-05-05 02:38 33.30250 70.86889 38014 ft 472 kts 218°
2026-05-05 02:39 33.24607 70.82694 38013 ft 471 kts 218°
2026-05-05 02:39 33.19011 70.78535 38012 ft 470 kts 218°
2026-05-05 02:40 33.13425 70.74388 37988 ft 470 kts 218°
2026-05-05 02:40 33.07814 70.70229 37963 ft 471 kts 218°
2026-05-05 02:41 33.02214 70.66085 37945 ft 470 kts 218°
2026-05-05 02:41 32.96586 70.61927 37922 ft 471 kts 218°
2026-05-05 02:42 32.90992 70.57732 37933 ft 470 kts 219°
2026-05-05 02:42 32.85461 70.53489 37912 ft 470 kts 219°
2026-05-05 02:43 32.79934 70.49262 37914 ft 471 kts 219°
2026-05-05 02:43 32.74339 70.44988 37939 ft 470 kts 219°
2026-05-05 02:44 32.68806 70.40768 37962 ft 470 kts 219°
2026-05-05 02:44 32.63209 70.36518 37969 ft 471 kts 218°
2026-05-05 02:45 32.57521 70.32574 37995 ft 471 kts 216°
2026-05-05 02:45 32.51798 70.28592 38000 ft 472 kts 216°
2026-05-05 02:45 32.49106 70.26377 37976 ft 464 kts 227°
2026-05-05 02:46 32.46924 70.23570 38008 ft 453 kts 240°
2026-05-05 02:46 32.45384 70.20356 38003 ft 444 kts 252°
2026-05-05 02:46 32.44529 70.16846 38017 ft 435 kts 265°
2026-05-05 02:46 32.44405 70.13263 38009 ft 430 kts 277°
2026-05-05 02:47 32.44807 70.09766 38046 ft 428 kts 281°
2026-05-05 02:47 32.45552 70.06321 38002 ft 426 kts 292°
2026-05-05 02:47 32.46944 70.03264 38047 ft 425 kts 305°
2026-05-05 02:48 32.50714 69.97733 38029 ft 428 kts 307°
2026-05-05 02:48 32.54416 69.92198 38099 ft 425 kts 307°
2026-05-05 02:49 32.58115 69.86630 38133 ft 425 kts 307°
2026-05-05 02:49 32.61799 69.81075 38195 ft 426 kts 307°
2026-05-05 02:50 32.65468 69.75532 38260 ft 424 kts 307°
2026-05-05 02:50 32.69132 69.69990 38265 ft 425 kts 307°
2026-05-05 02:51 32.72814 69.64409 38289 ft 425 kts 307°
2026-05-05 02:51 32.76483 69.58843 38280 ft 424 kts 307°
2026-05-05 02:52 32.80162 69.53251 38257 ft 424 kts 307°
2026-05-05 02:52 32.83823 69.47681 38266 ft 424 kts 307°
2026-05-05 02:53 32.87472 69.42115 38252 ft 425 kts 307°
2026-05-05 02:53 32.91122 69.36517 38258 ft 425 kts 307°
2026-05-05 02:54 32.94787 69.30892 38272 ft 425 kts 307°
2026-05-05 02:54 32.98433 69.25286 38277 ft 426 kts 307°
2026-05-05 02:55 33.02089 69.19658 38314 ft 426 kts 307°
2026-05-05 02:55 33.05746 69.14017 38306 ft 427 kts 307°
2026-05-05 02:56 33.09433 69.08325 38322 ft 426 kts 307°
2026-05-05 02:56 33.13071 69.02697 38324 ft 426 kts 307°
2026-05-05 02:57 33.16728 68.97031 38327 ft 426 kts 307°
2026-05-05 02:57 33.20355 68.91405 38305 ft 425 kts 307°
2026-05-05 02:58 33.23985 68.85763 38298 ft 425 kts 307°
2026-05-05 02:58 33.27624 68.80100 38292 ft 425 kts 307°
2026-05-05 02:59 33.31470 68.74710 38295 ft 423 kts 310°
2026-05-05 02:59 33.35348 68.69311 38296 ft 424 kts 309°
2026-05-05 03:00 33.39211 68.63917 38301 ft 422 kts 310°
2026-05-05 03:00 33.43058 68.58535 38307 ft 423 kts 310°
2026-05-05 03:01 33.46919 68.53128 38290 ft 423 kts 309°
2026-05-05 03:01 33.50775 68.47717 38315 ft 422 kts 309°
2026-05-05 03:02 33.54612 68.42325 38337 ft 421 kts 309°
2026-05-05 03:02 33.58361 68.36854 38336 ft 422 kts 309°
2026-05-05 03:03 33.62114 68.31353 38361 ft 422 kts 308°
2026-05-05 03:03 33.65839 68.25889 38377 ft 422 kts 308°
2026-05-05 03:04 33.69574 68.20400 38380 ft 420 kts 308°
2026-05-05 03:04 33.73323 68.14880 38404 ft 420 kts 308°
2026-05-05 03:05 33.77048 68.09390 38416 ft 420 kts 308°
2026-05-05 03:05 33.80766 68.03902 38438 ft 420 kts 308°
2026-05-05 03:06 33.84466 67.98431 38456 ft 421 kts 308°
2026-05-05 03:06 33.88209 67.92887 38441 ft 420 kts 308°
2026-05-05 03:07 33.91924 67.87376 38456 ft 420 kts 308°
2026-05-05 03:07 33.95632 67.81870 38451 ft 421 kts 308°
2026-05-05 03:08 33.99343 67.76321 38447 ft 421 kts 308°
2026-05-05 03:08 34.03021 67.70757 38455 ft 420 kts 308°
2026-05-05 03:09 34.06695 67.65196 38453 ft 420 kts 308°
2026-05-05 03:09 34.10358 67.59637 38453 ft 420 kts 308°
2026-05-05 03:10 34.14004 67.54099 38454 ft 421 kts 308°
2026-05-05 03:10 34.17672 67.48519 38452 ft 420 kts 308°
2026-05-05 03:11 34.21329 67.42945 38438 ft 420 kts 308°
2026-05-05 03:11 34.24983 67.37369 38437 ft 420 kts 308°
2026-05-05 03:12 34.28650 67.31767 38453 ft 420 kts 307°
2026-05-05 03:12 34.32292 67.26189 38458 ft 421 kts 307°
2026-05-05 03:13 34.35966 67.20555 38452 ft 420 kts 307°
2026-05-05 03:13 34.39595 67.14983 38461 ft 420 kts 307°
2026-05-05 03:14 34.43248 67.09362 38465 ft 420 kts 307°
2026-05-05 03:14 34.46891 67.03749 38477 ft 421 kts 307°
2026-05-05 03:15 34.50523 66.98144 38483 ft 421 kts 307°
2026-05-05 03:15 34.54192 66.92475 38462 ft 421 kts 307°
2026-05-05 03:16 34.57821 66.86850 38458 ft 420 kts 307°
2026-05-05 03:16 34.61457 66.81204 38462 ft 421 kts 307°
2026-05-05 03:17 34.65100 66.75536 38479 ft 421 kts 307°
2026-05-05 03:17 34.68736 66.69871 38470 ft 422 kts 307°
2026-05-05 03:18 34.72357 66.64221 38462 ft 421 kts 307°
2026-05-05 03:18 34.75976 66.58566 38479 ft 421 kts 307°
2026-05-05 03:19 34.81418 66.50044 38470 ft 423 kts 307°
2026-05-05 03:19 34.85061 66.44327 38477 ft 422 kts 307°
2026-05-05 03:20 34.88684 66.38633 38464 ft 422 kts 307°
2026-05-05 03:20 34.92303 66.32936 38477 ft 424 kts 306°
2026-05-05 03:21 34.95941 66.27198 38482 ft 422 kts 306°
2026-05-05 03:21 34.99548 66.21456 38489 ft 424 kts 306°
2026-05-05 03:22 35.03156 66.15687 38485 ft 422 kts 306°
2026-05-05 03:22 35.06729 66.09963 38473 ft 423 kts 306°
2026-05-05 03:23 35.10321 66.04202 38453 ft 423 kts 306°
2026-05-05 03:23 35.13908 65.98435 38460 ft 423 kts 306°
2026-05-05 03:24 35.17494 65.92662 38446 ft 422 kts 306°
2026-05-05 03:24 35.21060 65.86914 38436 ft 423 kts 306°
2026-05-05 03:25 35.24661 65.81097 38420 ft 422 kts 306°
2026-05-05 03:25 35.28224 65.75333 38418 ft 421 kts 306°
2026-05-05 03:26 35.31795 65.69547 38415 ft 420 kts 306°
2026-05-05 03:26 35.35327 65.63816 38407 ft 420 kts 306°
2026-05-05 03:27 35.38889 65.58022 38397 ft 420 kts 306°
2026-05-05 03:27 35.42427 65.52264 38387 ft 420 kts 306°
2026-05-05 03:28 35.45959 65.46501 38365 ft 419 kts 306°
2026-05-05 03:28 35.49490 65.40733 38370 ft 420 kts 306°
2026-05-05 03:29 35.53007 65.34975 38329 ft 420 kts 306°
2026-05-05 03:29 35.56576 65.29126 38318 ft 419 kts 306°
2026-05-05 03:30 35.60102 65.23336 38299 ft 419 kts 306°
2026-05-05 03:30 35.63617 65.17557 38305 ft 419 kts 305°
2026-05-05 03:31 35.67133 65.11762 38254 ft 418 kts 306°
2026-05-05 03:31 35.70633 65.05987 38250 ft 419 kts 305°
2026-05-05 03:32 35.74124 65.00217 38234 ft 418 kts 305°
2026-05-05 03:32 35.77631 64.94410 38194 ft 419 kts 305°
2026-05-05 03:33 35.81142 64.88588 38177 ft 418 kts 305°
2026-05-05 03:33 35.84635 64.82783 38132 ft 419 kts 305°
2026-05-05 03:34 35.88131 64.76965 38114 ft 419 kts 306°
2026-05-05 03:34 35.91635 64.71124 38071 ft 420 kts 305°
2026-05-05 03:35 35.95129 64.65292 38064 ft 420 kts 306°
2026-05-05 03:35 35.98603 64.59481 38043 ft 419 kts 305°
2026-05-05 03:36 36.02087 64.53643 38013 ft 419 kts 306°
2026-05-05 03:36 36.05595 64.47758 38016 ft 419 kts 305°
2026-05-05 03:37 36.09079 64.41901 38016 ft 419 kts 305°
2026-05-05 03:37 36.12555 64.36045 38010 ft 419 kts 305°
2026-05-05 03:38 36.16049 64.30151 38018 ft 419 kts 304°
2026-05-05 03:38 36.19626 64.24388 38002 ft 419 kts 306°
2026-05-05 03:39 36.23242 64.18625 38006 ft 419 kts 306°
2026-05-05 03:39 36.26845 64.12869 38008 ft 419 kts 306°
2026-05-05 03:40 36.30428 64.07134 38012 ft 419 kts 306°
2026-05-05 03:40 36.34038 64.01344 38009 ft 419 kts 306°
2026-05-05 03:41 36.37634 63.95571 38014 ft 419 kts 306°
2026-05-05 03:41 36.41215 63.89809 38015 ft 419 kts 306°
2026-05-05 03:42 36.44793 63.84045 38012 ft 419 kts 306°
2026-05-05 03:42 36.48402 63.78217 38012 ft 419 kts 306°
2026-05-05 03:43 36.51976 63.72440 38012 ft 419 kts 306°
2026-05-05 03:43 36.55561 63.66633 37995 ft 419 kts 306°
2026-05-05 03:44 36.59119 63.60859 37990 ft 420 kts 306°
2026-05-05 03:44 36.62702 63.55035 37977 ft 419 kts 306°
2026-05-05 03:45 36.66276 63.49217 37981 ft 420 kts 306°
2026-05-05 03:45 36.69857 63.43377 37976 ft 419 kts 306°
2026-05-05 03:46 36.73439 63.37524 37972 ft 420 kts 306°
2026-05-05 03:46 36.77015 63.31672 37989 ft 421 kts 306°
2026-05-05 03:47 36.80574 63.25836 37972 ft 420 kts 306°
2026-05-05 03:47 36.84136 63.19988 37964 ft 420 kts 306°
2026-05-05 03:48 36.87696 63.14131 37963 ft 420 kts 306°
2026-05-05 03:48 36.91241 63.08289 37957 ft 421 kts 306°
2026-05-05 03:49 36.94810 63.02398 37962 ft 420 kts 306°
2026-05-05 03:49 36.98358 62.96530 37947 ft 421 kts 306°
2026-05-05 03:50 37.01910 62.90645 37941 ft 421 kts 306°
2026-05-05 03:50 37.05461 62.84754 37941 ft 422 kts 305°
2026-05-05 03:51 37.09036 62.78811 37939 ft 421 kts 305°
2026-05-05 03:51 37.12589 62.72893 37940 ft 422 kts 306°
2026-05-05 03:52 37.16148 62.66956 37934 ft 421 kts 305°
2026-05-05 03:52 37.19673 62.61064 37930 ft 422 kts 305°
2026-05-05 03:53 37.23228 62.55112 37929 ft 422 kts 305°
2026-05-05 03:53 37.26776 62.49162 37920 ft 422 kts 305°
2026-05-05 03:54 37.30299 62.43241 37920 ft 423 kts 305°
2026-05-05 03:54 37.33861 62.37244 37917 ft 422 kts 305°
2026-05-05 03:55 37.37394 62.31287 37928 ft 422 kts 304°
2026-05-05 03:55 37.40957 62.25270 37923 ft 422 kts 305°
2026-05-05 03:56 37.44487 62.19295 37915 ft 423 kts 305°
2026-05-05 03:56 37.48021 62.13304 37921 ft 423 kts 305°
2026-05-05 03:57 37.51564 62.07286 37910 ft 423 kts 305°
2026-05-05 03:57 37.55087 62.01292 37907 ft 423 kts 305°
2026-05-05 03:58 37.58601 61.95303 37894 ft 423 kts 304°
2026-05-05 03:58 37.62113 61.89247 37894 ft 422 kts 301°
2026-05-05 03:59 37.64795 61.82682 37913 ft 422 kts 296°
2026-05-05 03:59 37.67471 61.75972 37902 ft 421 kts 296°
2026-05-05 04:00 37.70121 61.69332 37905 ft 420 kts 296°
2026-05-05 04:00 37.72778 61.62659 37892 ft 420 kts 296°
2026-05-05 04:01 37.75430 61.55984 37899 ft 421 kts 296°
2026-05-05 04:01 37.78064 61.49345 37899 ft 421 kts 296°
2026-05-05 04:02 37.80701 61.42679 37892 ft 420 kts 296°
2026-05-05 04:02 37.83264 61.36186 37895 ft 420 kts 296°
2026-05-05 04:03 37.85890 61.29524 37908 ft 420 kts 296°
2026-05-05 04:03 37.88511 61.22861 37902 ft 420 kts 295°
2026-05-05 04:04 37.91127 61.16193 37900 ft 420 kts 295°
2026-05-05 04:04 37.93739 61.09520 37897 ft 420 kts 295°
2026-05-05 04:05 37.96361 61.02811 37905 ft 420 kts 295°
2026-05-05 04:05 37.98970 60.96119 37907 ft 420 kts 295°
2026-05-05 04:06 38.01570 60.89434 37896 ft 420 kts 295°
2026-05-05 04:06 38.04183 60.82705 37894 ft 421 kts 295°
2026-05-05 04:07 38.06765 60.76037 37891 ft 421 kts 295°
2026-05-05 04:07 38.09364 60.69312 37887 ft 420 kts 295°
2026-05-05 04:08 38.11966 60.62564 37888 ft 421 kts 295°
2026-05-05 04:08 38.14555 60.55837 37879 ft 420 kts 295°
2026-05-05 04:09 38.17131 60.49127 37877 ft 420 kts 295°
2026-05-05 04:09 38.19701 60.42417 37876 ft 421 kts 295°
2026-05-05 04:10 38.22280 60.35673 37866 ft 421 kts 295°
2026-05-05 04:10 38.24866 60.28891 37869 ft 421 kts 294°
2026-05-05 04:11 38.27428 60.22160 37873 ft 421 kts 294°
2026-05-05 04:11 38.29992 60.15406 37880 ft 421 kts 294°
2026-05-05 04:12 38.32569 60.08604 37866 ft 421 kts 294°
2026-05-05 04:12 38.35128 60.01839 37867 ft 421 kts 294°
2026-05-05 04:13 38.37674 59.95089 37860 ft 421 kts 294°
2026-05-05 04:13 38.40229 59.88298 37862 ft 422 kts 294°
2026-05-05 04:14 38.42774 59.81519 37858 ft 422 kts 294°
2026-05-05 04:14 38.45324 59.74713 37857 ft 421 kts 294°
2026-05-05 04:15 38.47876 59.67887 37859 ft 421 kts 294°
2026-05-05 04:15 38.50422 59.61063 37855 ft 422 kts 294°
2026-05-05 04:16 38.52956 59.54254 37850 ft 422 kts 294°
2026-05-05 04:16 38.55492 59.47425 37850 ft 423 kts 294°
2026-05-05 04:17 38.58028 59.40579 37850 ft 423 kts 294°
2026-05-05 04:17 38.60619 59.33770 37852 ft 422 kts 295°
2026-05-05 04:18 38.63311 59.27041 37853 ft 423 kts 295°
2026-05-05 04:18 38.66005 59.20276 37850 ft 424 kts 295°
2026-05-05 04:19 38.68691 59.13511 37850 ft 423 kts 295°
2026-05-05 04:19 38.71386 59.06712 37853 ft 423 kts 295°
2026-05-05 04:20 38.74068 58.99926 37851 ft 424 kts 295°
2026-05-05 04:20 38.76739 58.93156 37848 ft 423 kts 295°
2026-05-05 04:21 38.79404 58.86384 37846 ft 423 kts 295°
2026-05-05 04:21 38.82064 58.79611 37844 ft 423 kts 295°
2026-05-05 04:22 38.84723 58.72826 37843 ft 423 kts 294°
2026-05-05 04:22 38.87391 58.66005 37844 ft 422 kts 294°
2026-05-05 04:23 38.89697 58.59092 37847 ft 420 kts 287°
2026-05-05 04:23 38.91621 58.51955 37838 ft 421 kts 288°
2026-05-05 04:24 38.93570 58.44803 37830 ft 420 kts 288°
2026-05-05 04:25 38.96471 58.34126 37852 ft 419 kts 287°
2026-05-05 04:25 38.98412 58.26961 37830 ft 421 kts 287°
2026-05-05 04:26 39.00354 58.19772 37842 ft 420 kts 287°
2026-05-05 04:26 39.02277 58.12637 37843 ft 420 kts 287°
2026-05-05 04:27 39.04193 58.05500 37844 ft 419 kts 287°
2026-05-05 04:27 39.06110 57.98341 37835 ft 420 kts 287°
2026-05-05 04:28 39.08028 57.91166 37825 ft 419 kts 287°
2026-05-05 04:28 39.09922 57.84052 37829 ft 419 kts 287°
2026-05-05 04:29 39.11813 57.76928 37828 ft 418 kts 287°
2026-05-05 04:29 39.13716 57.69748 37818 ft 417 kts 286°
2026-05-05 04:30 39.15596 57.62628 37825 ft 416 kts 286°
2026-05-05 04:30 39.17466 57.55523 37818 ft 417 kts 286°
2026-05-05 04:31 39.19337 57.48399 37809 ft 416 kts 286°
2026-05-05 04:31 39.21205 57.41266 37804 ft 416 kts 286°
2026-05-05 04:32 39.23059 57.34162 37812 ft 416 kts 285°
2026-05-05 04:32 39.24918 57.27025 37810 ft 414 kts 285°
2026-05-05 04:33 39.26756 57.19946 37816 ft 414 kts 285°
2026-05-05 04:33 39.28588 57.12864 37809 ft 414 kts 285°
2026-05-05 04:34 39.30420 57.05764 37805 ft 414 kts 285°
2026-05-05 04:34 39.32238 56.98707 37798 ft 414 kts 285°
2026-05-05 04:35 39.34065 56.91580 37807 ft 413 kts 285°
2026-05-05 04:35 39.35878 56.84499 37803 ft 414 kts 285°
2026-05-05 04:36 39.37630 56.77345 37798 ft 414 kts 283°
2026-05-05 04:36 39.39287 56.70142 37792 ft 414 kts 284°
2026-05-05 04:37 39.40937 56.62981 37796 ft 415 kts 283°
2026-05-05 04:37 39.42591 56.55771 37793 ft 414 kts 283°
2026-05-05 04:38 39.44228 56.48616 37797 ft 414 kts 283°
2026-05-05 04:38 39.45879 56.41374 37789 ft 415 kts 283°
2026-05-05 04:39 39.47521 56.34157 37799 ft 415 kts 283°
2026-05-05 04:39 39.49148 56.26977 37798 ft 414 kts 283°
2026-05-05 04:40 39.50784 56.19729 37804 ft 416 kts 283°
2026-05-05 04:40 39.52404 56.12540 37798 ft 415 kts 283°
2026-05-05 04:41 39.54028 56.05300 37801 ft 416 kts 283°
2026-05-05 04:41 39.55650 55.98053 37804 ft 416 kts 283°
2026-05-05 04:42 39.57271 55.90785 37802 ft 416 kts 283°
2026-05-05 04:42 39.58894 55.83546 37795 ft 416 kts 283°
2026-05-05 04:43 39.60523 55.76275 37791 ft 416 kts 282°
2026-05-05 04:43 39.62140 55.69027 37791 ft 415 kts 282°
2026-05-05 04:44 39.63754 55.61770 37792 ft 416 kts 283°
2026-05-05 04:44 39.65364 55.54517 37787 ft 415 kts 282°
2026-05-05 04:45 39.66965 55.47267 37784 ft 415 kts 282°
2026-05-05 04:45 39.68567 55.40002 37783 ft 415 kts 282°
2026-05-05 04:46 39.70146 55.32794 37795 ft 414 kts 282°
2026-05-05 04:46 39.71732 55.25518 37795 ft 415 kts 281°
2026-05-05 04:47 39.73309 55.18258 37790 ft 415 kts 282°
2026-05-05 04:47 39.74891 55.10955 37793 ft 415 kts 281°
2026-05-05 04:48 39.76456 55.03703 37788 ft 416 kts 281°
2026-05-05 04:48 39.78022 54.96421 37788 ft 415 kts 281°
2026-05-05 04:49 39.79580 54.89150 37802 ft 415 kts 281°
2026-05-05 04:49 39.81129 54.81908 37814 ft 415 kts 281°
2026-05-05 04:50 39.82688 54.74587 37821 ft 415 kts 281°
2026-05-05 04:50 39.84252 54.67279 37826 ft 415 kts 281°
2026-05-05 04:51 39.85796 54.60021 37832 ft 415 kts 281°
2026-05-05 04:51 39.87353 54.52700 37837 ft 416 kts 281°
2026-05-05 04:52 39.88891 54.45425 37828 ft 416 kts 281°
2026-05-05 04:52 39.90420 54.38126 37819 ft 414 kts 281°
2026-05-05 04:53 39.91944 54.30818 37827 ft 415 kts 280°
2026-05-05 04:53 39.93458 54.23541 37826 ft 415 kts 280°
2026-05-05 04:54 39.94978 54.16207 37828 ft 414 kts 280°
2026-05-05 04:54 39.96480 54.08929 37828 ft 415 kts 280°
2026-05-05 04:55 39.97985 54.01619 37830 ft 415 kts 280°
2026-05-05 04:55 39.99482 53.94317 37826 ft 414 kts 280°
2026-05-05 04:56 40.00978 53.86993 37816 ft 415 kts 279°
2026-05-05 04:56 40.02475 53.79645 37809 ft 417 kts 279°
2026-05-05 04:57 40.03964 53.72296 37815 ft 416 kts 279°
2026-05-05 04:57 40.05452 53.64938 37802 ft 417 kts 279°
2026-05-05 04:58 40.06933 53.57584 37808 ft 419 kts 279°
2026-05-05 04:58 40.08423 53.50162 37800 ft 419 kts 279°
2026-05-05 04:59 40.09909 53.42731 37814 ft 420 kts 279°
2026-05-05 04:59 40.11390 53.35296 37822 ft 420 kts 279°
2026-05-05 05:00 40.12863 53.27879 37827 ft 421 kts 278°
2026-05-05 05:00 40.14344 53.20392 37827 ft 421 kts 278°
2026-05-05 05:01 40.15813 53.12942 37833 ft 421 kts 278°
2026-05-05 05:01 40.17276 53.05492 37838 ft 422 kts 278°
2026-05-05 05:02 40.18733 52.98042 37839 ft 424 kts 278°
2026-05-05 05:02 40.20191 52.90561 37832 ft 422 kts 278°
2026-05-05 05:03 40.21647 52.83059 37831 ft 424 kts 278°
2026-05-05 05:03 40.23102 52.75539 37828 ft 423 kts 278°
2026-05-05 05:04 40.24538 52.68089 37834 ft 424 kts 278°
2026-05-05 05:04 40.25984 52.60560 37827 ft 424 kts 278°
2026-05-05 05:05 40.27432 52.53008 37826 ft 425 kts 278°
2026-05-05 05:05 40.28869 52.45482 37832 ft 426 kts 278°
2026-05-05 05:06 40.30310 52.37922 37825 ft 425 kts 278°
2026-05-05 05:06 40.31736 52.30404 37824 ft 425 kts 278°
2026-05-05 05:07 40.33163 52.22846 37830 ft 427 kts 278°
2026-05-05 05:07 40.34587 52.15283 37836 ft 426 kts 278°
2026-05-05 05:08 40.36013 52.07681 37839 ft 427 kts 278°
2026-05-05 05:08 40.37434 52.00069 37842 ft 427 kts 278°
2026-05-05 05:09 40.38850 51.92460 37836 ft 428 kts 278°
2026-05-05 05:09 40.40250 51.84907 37829 ft 428 kts 278°
2026-05-05 05:10 40.41658 51.77279 37830 ft 429 kts 278°
2026-05-05 05:10 40.43068 51.69613 37836 ft 430 kts 278°
2026-05-05 05:11 40.44463 51.61987 37837 ft 429 kts 278°
2026-05-05 05:11 40.45862 51.54321 37829 ft 430 kts 278°
2026-05-05 05:12 40.47303 51.46642 37841 ft 432 kts 279°
2026-05-05 05:12 40.48813 51.39003 37836 ft 431 kts 279°
2026-05-05 05:13 40.50319 51.31326 37847 ft 433 kts 278°
2026-05-05 05:13 40.51823 51.23639 37834 ft 432 kts 278°
2026-05-05 05:14 40.53313 51.15982 37834 ft 433 kts 278°
2026-05-05 05:14 40.54798 51.08325 37843 ft 433 kts 278°
2026-05-05 05:15 40.56296 51.00570 37846 ft 433 kts 278°
2026-05-05 05:15 40.57776 50.92888 37847 ft 433 kts 278°
2026-05-05 05:16 40.59261 50.85137 37836 ft 434 kts 278°
2026-05-05 05:16 40.60737 50.77411 37842 ft 435 kts 278°
2026-05-05 05:17 40.62211 50.69659 37847 ft 434 kts 278°
2026-05-05 05:17 40.63685 50.61883 37836 ft 435 kts 278°
2026-05-05 05:18 40.65150 50.54122 37840 ft 436 kts 278°
2026-05-05 05:18 40.66611 50.46347 37835 ft 437 kts 278°
2026-05-05 05:19 40.68068 50.38565 37855 ft 436 kts 278°
2026-05-05 05:19 40.69519 50.30782 37852 ft 436 kts 278°
2026-05-05 05:20 40.70973 50.22949 37878 ft 438 kts 278°
2026-05-05 05:20 40.72412 50.15169 37858 ft 437 kts 278°
2026-05-05 05:21 40.73853 50.07350 37845 ft 437 kts 277°
2026-05-05 05:21 40.75291 49.99505 37875 ft 439 kts 277°
2026-05-05 05:22 40.76727 49.91643 37864 ft 439 kts 278°
2026-05-05 05:22 40.78160 49.83776 37846 ft 439 kts 277°
2026-05-05 05:23 40.79586 49.75890 37850 ft 439 kts 277°
2026-05-05 05:23 40.81003 49.68046 37852 ft 440 kts 277°
2026-05-05 05:24 40.82427 49.60116 37863 ft 440 kts 278°
2026-05-05 05:24 40.83839 49.52217 37874 ft 441 kts 278°
2026-05-05 05:25 40.85250 49.44299 37862 ft 440 kts 278°
2026-05-05 05:25 40.86653 49.36393 37863 ft 441 kts 278°
2026-05-05 05:26 40.88060 49.28427 37868 ft 440 kts 277°
2026-05-05 05:26 40.89447 49.20535 37875 ft 441 kts 277°
2026-05-05 05:27 40.90841 49.12583 37870 ft 442 kts 277°
2026-05-05 05:27 40.92910 49.00691 37879 ft 441 kts 277°
2026-05-05 05:28 40.94298 48.92674 37886 ft 443 kts 277°
2026-05-05 05:28 40.95680 48.84665 37894 ft 443 kts 277°
2026-05-05 05:29 40.97047 48.76705 37897 ft 443 kts 277°
2026-05-05 05:29 40.98415 48.68696 37887 ft 443 kts 277°
2026-05-05 05:30 40.99780 48.60673 37942 ft 444 kts 277°
2026-05-05 05:30 41.01133 48.52682 37989 ft 443 kts 277°
2026-05-05 05:31 41.02498 48.44593 38028 ft 445 kts 277°
2026-05-05 05:31 41.03845 48.36564 38036 ft 446 kts 277°
2026-05-05 05:32 41.05191 48.28507 38045 ft 443 kts 276°
2026-05-05 05:32 41.06519 48.20536 38054 ft 443 kts 276°
2026-05-05 05:33 41.07854 48.12469 38048 ft 444 kts 276°
2026-05-05 05:33 41.09184 48.04397 38042 ft 445 kts 276°
2026-05-05 05:34 41.10510 47.96306 38032 ft 446 kts 276°
2026-05-05 05:34 41.11822 47.88277 38002 ft 447 kts 276°
2026-05-05 05:35 41.13146 47.80122 38013 ft 447 kts 276°
2026-05-05 05:35 41.14453 47.72049 38003 ft 447 kts 276°
2026-05-05 05:36 41.15761 47.63925 38009 ft 446 kts 276°
2026-05-05 05:36 41.17061 47.55809 38018 ft 448 kts 276°
2026-05-05 05:37 41.18364 47.47634 38016 ft 448 kts 276°
2026-05-05 05:37 41.19649 47.39542 37999 ft 448 kts 276°
2026-05-05 05:38 41.20934 47.31394 37979 ft 448 kts 276°
2026-05-05 05:38 41.22225 47.23183 37931 ft 450 kts 276°
2026-05-05 05:39 41.23500 47.15031 37909 ft 449 kts 276°
2026-05-05 05:39 41.24772 47.06860 37888 ft 450 kts 276°
2026-05-05 05:40 41.26040 46.98666 37856 ft 449 kts 276°
2026-05-05 05:40 41.27305 46.90455 37841 ft 450 kts 275°
2026-05-05 05:41 41.28571 46.82193 37869 ft 452 kts 276°
2026-05-05 05:41 41.29818 46.73988 37849 ft 452 kts 275°
2026-05-05 05:42 41.30971 46.65756 37857 ft 453 kts 275°
2026-05-05 05:42 41.32135 46.57452 37856 ft 452 kts 275°
2026-05-05 05:43 41.33287 46.49180 37843 ft 453 kts 275°
2026-05-05 05:43 41.34434 46.40894 37840 ft 453 kts 275°
2026-05-05 05:44 41.35578 46.32604 37848 ft 455 kts 274°
2026-05-05 05:44 41.36722 46.24246 37857 ft 455 kts 274°
2026-05-05 05:45 41.37861 46.15890 37852 ft 454 kts 274°
2026-05-05 05:45 41.38987 46.07584 37852 ft 453 kts 274°
2026-05-05 05:46 41.40109 45.99247 37860 ft 456 kts 274°
2026-05-05 05:46 41.41233 45.90869 37861 ft 455 kts 274°
2026-05-05 05:47 41.42347 45.82497 37872 ft 457 kts 274°
2026-05-05 05:47 41.43453 45.74144 37854 ft 455 kts 274°
2026-05-05 05:48 41.44556 45.65754 37864 ft 459 kts 274°
2026-05-05 05:48 41.45662 45.57301 37859 ft 459 kts 274°
2026-05-05 05:49 41.46757 45.48886 37878 ft 461 kts 274°
2026-05-05 05:49 41.47856 45.40396 37875 ft 461 kts 274°
2026-05-05 05:50 41.48754 45.31903 37871 ft 456 kts 270°
2026-05-05 05:50 41.49426 45.23473 37859 ft 458 kts 270°
2026-05-05 05:51 41.50121 45.14926 37868 ft 460 kts 270°
2026-05-05 05:51 41.50806 45.06432 37852 ft 458 kts 270°
2026-05-05 05:52 41.51486 44.97933 37850 ft 460 kts 270°
2026-05-05 05:52 41.52165 44.89362 37851 ft 460 kts 270°
2026-05-05 05:53 41.52835 44.80834 37845 ft 461 kts 270°
2026-05-05 05:53 41.53498 44.72300 37865 ft 461 kts 270°
2026-05-05 05:54 41.54160 44.63706 37878 ft 462 kts 270°
2026-05-05 05:54 41.54813 44.55150 37890 ft 462 kts 271°
2026-05-05 05:55 41.55461 44.46545 37884 ft 463 kts 271°
2026-05-05 05:55 41.56106 44.37926 37879 ft 464 kts 270°
2026-05-05 05:56 41.56740 44.29355 37882 ft 463 kts 270°
2026-05-05 05:56 41.57014 44.20786 37914 ft 455 kts 258°
2026-05-05 05:57 41.56020 44.12350 37908 ft 455 kts 257°
2026-05-05 05:57 41.55086 44.03989 37941 ft 456 kts 257°
2026-05-05 05:58 41.54149 43.95577 37925 ft 457 kts 257°
2026-05-05 05:58 41.53200 43.87115 37937 ft 457 kts 257°
2026-05-05 05:59 41.52249 43.78692 37933 ft 458 kts 257°
2026-05-05 05:59 41.51290 43.70235 37943 ft 458 kts 257°
2026-05-05 06:00 41.50325 43.61807 37941 ft 457 kts 257°
2026-05-05 06:00 41.49353 43.53366 37946 ft 460 kts 257°
2026-05-05 06:01 41.48370 43.44899 37949 ft 460 kts 257°
2026-05-05 06:01 41.47377 43.36386 37935 ft 462 kts 257°
2026-05-05 06:02 41.46385 43.27928 37952 ft 461 kts 257°
2026-05-05 06:02 41.45378 43.19413 37959 ft 462 kts 257°
2026-05-05 06:03 41.44359 43.10857 37941 ft 464 kts 257°
2026-05-05 06:03 41.43336 43.02309 37951 ft 464 kts 257°
2026-05-05 06:04 41.42310 42.93798 37961 ft 465 kts 257°
2026-05-05 06:04 41.41272 42.85244 37959 ft 465 kts 257°
2026-05-05 06:05 41.40229 42.76705 37954 ft 464 kts 257°
2026-05-05 06:05 41.39180 42.68167 37958 ft 464 kts 257°
2026-05-05 06:06 41.38122 42.59615 37944 ft 465 kts 257°
2026-05-05 06:06 41.37065 42.51120 37935 ft 464 kts 257°
2026-05-05 06:07 41.35996 42.42578 37935 ft 464 kts 257°
2026-05-05 06:07 41.34929 42.34112 37935 ft 464 kts 256°
2026-05-05 06:08 41.33850 42.25599 37943 ft 463 kts 257°
2026-05-05 06:08 41.32767 42.17104 37938 ft 463 kts 256°
2026-05-05 06:09 41.31679 42.08625 37929 ft 463 kts 256°
2026-05-05 06:09 41.30582 42.00128 37929 ft 463 kts 257°
2026-05-05 06:10 41.29472 41.91626 37927 ft 463 kts 257°
2026-05-05 06:10 41.28352 41.83129 37925 ft 463 kts 257°
2026-05-05 06:11 41.27231 41.74675 37916 ft 463 kts 257°
2026-05-05 06:11 41.26096 41.66158 37913 ft 463 kts 257°
2026-05-05 06:12 41.24957 41.57679 37914 ft 463 kts 257°
2026-05-05 06:12 41.23817 41.49226 37922 ft 464 kts 257°
2026-05-05 06:13 41.22668 41.40763 37915 ft 464 kts 257°
2026-05-05 06:13 41.21509 41.32270 37903 ft 463 kts 256°
2026-05-05 06:14 41.20343 41.23780 37904 ft 463 kts 256°
2026-05-05 06:14 41.19182 41.15365 37901 ft 462 kts 256°
2026-05-05 06:15 41.18009 41.06921 37893 ft 463 kts 256°
2026-05-05 06:15 41.16822 40.98415 37869 ft 464 kts 256°
2026-05-05 06:16 41.15642 40.90015 37871 ft 463 kts 256°
2026-05-05 06:16 41.14444 40.81528 37865 ft 464 kts 256°
2026-05-05 06:17 41.13248 40.73105 37865 ft 465 kts 256°
2026-05-05 06:17 41.12036 40.64613 37865 ft 466 kts 256°
2026-05-05 06:18 41.10819 40.56136 37873 ft 466 kts 256°
2026-05-05 06:18 41.09592 40.47634 37874 ft 466 kts 256°
2026-05-05 06:19 41.08359 40.39135 37868 ft 467 kts 256°
2026-05-05 06:19 41.07129 40.30710 37870 ft 467 kts 256°
2026-05-05 06:20 41.05883 40.22212 37865 ft 467 kts 256°
2026-05-05 06:20 41.04633 40.13739 37865 ft 468 kts 256°
2026-05-05 06:21 41.03370 40.05224 37867 ft 469 kts 256°
2026-05-05 06:21 41.02097 39.96685 37861 ft 469 kts 256°
2026-05-05 06:22 41.00828 39.88208 37857 ft 469 kts 256°
2026-05-05 06:22 40.99646 39.79681 37851 ft 471 kts 263°
2026-05-05 06:23 40.99730 39.75259 37872 ft 476 kts 275°
2026-05-05 06:23 41.00289 39.70906 37872 ft 478 kts 276°
2026-05-05 06:23 41.01200 39.62133 37864 ft 478 kts 275°
2026-05-05 06:24 41.02036 39.53402 37860 ft 477 kts 275°
2026-05-05 06:24 41.02861 39.44655 37862 ft 477 kts 275°
2026-05-05 06:25 41.03680 39.35897 37866 ft 477 kts 275°
2026-05-05 06:25 41.04493 39.27141 37859 ft 477 kts 274°
2026-05-05 06:26 41.05300 39.18353 37869 ft 476 kts 274°
2026-05-05 06:26 41.06104 39.09625 37866 ft 477 kts 274°
2026-05-05 06:27 41.07317 38.96475 37876 ft 478 kts 275°
2026-05-05 06:28 41.08116 38.87725 37880 ft 478 kts 274°
2026-05-05 06:28 41.08908 38.78968 37879 ft 477 kts 274°
2026-05-05 06:29 41.09694 38.70209 37890 ft 478 kts 275°
2026-05-05 06:29 41.10457 38.61427 37894 ft 478 kts 274°
2026-05-05 06:30 41.11203 38.52600 37890 ft 478 kts 274°
2026-05-05 06:30 41.11934 38.43863 37889 ft 478 kts 274°
2026-05-05 06:31 41.12664 38.35049 37891 ft 478 kts 274°
2026-05-05 06:31 41.13388 38.26238 37899 ft 478 kts 274°
2026-05-05 06:32 41.14113 38.17400 37904 ft 478 kts 274°
2026-05-05 06:32 41.14826 38.08625 37904 ft 478 kts 274°
2026-05-05 06:33 41.15539 37.99773 37905 ft 478 kts 274°
2026-05-05 06:33 41.16241 37.90968 37904 ft 479 kts 274°
2026-05-05 06:34 41.16980 37.82143 37905 ft 480 kts 274°
2026-05-05 06:34 41.17727 37.73342 37907 ft 480 kts 275°
2026-05-05 06:35 41.18472 37.64483 37907 ft 481 kts 274°
2026-05-05 06:35 41.19002 37.55618 37914 ft 481 kts 272°
2026-05-05 06:36 41.19653 37.46749 37915 ft 482 kts 274°
2026-05-05 06:36 41.20317 37.37853 37915 ft 482 kts 274°
2026-05-05 06:37 41.20977 37.28890 37915 ft 482 kts 274°
2026-05-05 06:37 41.21637 37.20009 37916 ft 483 kts 274°
2026-05-05 06:38 41.22333 37.11096 37917 ft 483 kts 274°
2026-05-05 06:38 41.23019 37.02202 37920 ft 484 kts 274°
2026-05-05 06:39 41.23707 36.93186 37924 ft 483 kts 274°
2026-05-05 06:39 41.24381 36.84272 37928 ft 484 kts 274°
2026-05-05 06:40 41.25050 36.75313 37927 ft 484 kts 274°
2026-05-05 06:40 41.25714 36.66342 37934 ft 484 kts 274°
2026-05-05 06:41 41.26368 36.57406 37926 ft 484 kts 274°
2026-05-05 06:41 41.27013 36.48408 37939 ft 484 kts 274°
2026-05-05 06:42 41.27646 36.39454 37938 ft 484 kts 274°
2026-05-05 06:42 41.28273 36.30498 37924 ft 485 kts 274°
2026-05-05 06:43 41.28893 36.21522 37937 ft 485 kts 274°
2026-05-05 06:43 41.29510 36.12488 37913 ft 485 kts 274°
2026-05-05 06:44 41.30117 36.03502 37909 ft 485 kts 274°
2026-05-05 06:44 41.30713 35.94571 37915 ft 485 kts 274°
2026-05-05 06:45 41.31310 35.85513 37894 ft 486 kts 274°
2026-05-05 06:45 41.31895 35.76530 37904 ft 487 kts 274°
2026-05-05 06:46 41.32478 35.67479 37903 ft 487 kts 274°
2026-05-05 06:46 41.33052 35.58447 37901 ft 487 kts 274°
2026-05-05 06:47 41.33620 35.49405 37908 ft 489 kts 275°
2026-05-05 06:47 41.34184 35.40321 37922 ft 489 kts 275°
2026-05-05 06:48 41.34741 35.31210 37907 ft 488 kts 274°
2026-05-05 06:48 41.35285 35.22192 37899 ft 489 kts 274°
2026-05-05 06:49 41.35825 35.13136 37899 ft 489 kts 274°
2026-05-05 06:49 41.36360 35.04026 37908 ft 489 kts 274°
2026-05-05 06:50 41.36887 34.94967 37901 ft 489 kts 274°
2026-05-05 06:50 41.37404 34.85919 37900 ft 489 kts 274°
2026-05-05 06:51 41.37915 34.76855 37901 ft 489 kts 275°
2026-05-05 06:51 41.38422 34.67748 37892 ft 489 kts 275°
2026-05-05 06:52 41.38918 34.58711 37891 ft 489 kts 275°
2026-05-05 06:52 41.39408 34.49632 37881 ft 487 kts 275°
2026-05-05 06:53 41.39890 34.40582 37889 ft 487 kts 275°
2026-05-05 06:53 41.40646 34.31618 37879 ft 484 kts 287°
2026-05-05 06:54 41.42965 34.23170 37901 ft 485 kts 290°
2026-05-05 06:54 41.45188 34.14639 37914 ft 482 kts 290°
2026-05-05 06:55 41.47377 34.06157 37923 ft 482 kts 290°
2026-05-05 06:55 41.49561 33.97670 37925 ft 481 kts 290°
2026-05-05 06:56 41.51743 33.89158 37929 ft 481 kts 290°
2026-05-05 06:56 41.53913 33.80661 37937 ft 481 kts 290°
2026-05-05 06:57 41.56078 33.72156 37907 ft 481 kts 290°
2026-05-05 06:57 41.58235 33.63646 37904 ft 480 kts 290°
2026-05-05 06:58 41.60386 33.55146 37911 ft 481 kts 290°
2026-05-05 06:58 41.62544 33.46585 37905 ft 481 kts 290°
2026-05-05 06:59 41.64681 33.38057 37899 ft 481 kts 290°
2026-05-05 06:59 41.66810 33.29540 37889 ft 481 kts 290°
2026-05-05 07:00 41.68937 33.20996 37907 ft 482 kts 290°
2026-05-05 07:00 41.71058 33.12441 37910 ft 481 kts 290°
2026-05-05 07:01 41.73170 33.03897 37878 ft 481 kts 290°
2026-05-05 07:01 41.75286 32.95316 37906 ft 482 kts 290°
2026-05-05 07:02 41.77391 32.86739 37908 ft 481 kts 290°
2026-05-05 07:02 41.79475 32.78227 37917 ft 481 kts 290°
2026-05-05 07:03 41.81576 32.69590 37923 ft 482 kts 290°
2026-05-05 07:03 41.83651 32.61043 37957 ft 482 kts 291°
2026-05-05 07:04 41.85733 32.52425 37938 ft 482 kts 291°
2026-05-05 07:04 41.87796 32.43839 37939 ft 483 kts 291°
2026-05-05 07:05 41.89728 32.35217 37946 ft 484 kts 284°
2026-05-05 07:05 41.90679 32.26160 37935 ft 487 kts 278°
2026-05-05 07:05 41.90618 32.21594 37918 ft 492 kts 263°
2026-05-05 07:06 41.89726 32.17145 37988 ft 496 kts 253°
2026-05-05 07:06 41.87764 32.08213 37939 ft 497 kts 256°
2026-05-05 07:07 41.85922 31.99286 37914 ft 496 kts 257°
2026-05-05 07:07 41.84073 31.90324 37916 ft 496 kts 257°
2026-05-05 07:08 41.82224 31.81396 37924 ft 495 kts 257°
2026-05-05 07:08 41.80366 31.72466 37923 ft 495 kts 257°
2026-05-05 07:09 41.78527 31.63688 37936 ft 479 kts 257°
2026-05-05 07:09 41.76704 31.55011 37943 ft 481 kts 257°
2026-05-05 07:10 41.74880 31.46380 37946 ft 482 kts 257°
2026-05-05 07:10 41.73047 31.37736 37941 ft 480 kts 257°
2026-05-05 07:11 41.71200 31.29061 37940 ft 481 kts 256°
2026-05-05 07:11 41.69355 31.20433 37933 ft 481 kts 256°
2026-05-05 07:12 41.67529 31.11776 37931 ft 480 kts 258°
2026-05-05 07:12 41.65911 31.03108 37930 ft 480 kts 259°
2026-05-05 07:13 41.64276 30.94470 37951 ft 480 kts 258°
2026-05-05 07:13 41.62624 30.85773 37949 ft 479 kts 258°
2026-05-05 07:14 41.60977 30.77156 37958 ft 479 kts 258°
2026-05-05 07:14 41.59378 30.68495 37955 ft 475 kts 264°
2026-05-05 07:14 41.59190 30.64103 37963 ft 468 kts 277°
2026-05-05 07:15 41.59391 30.59768 37988 ft 470 kts 277°
2026-05-05 07:15 41.59727 30.51052 37966 ft 469 kts 277°
2026-05-05 07:16 41.60048 30.42369 37953 ft 468 kts 277°
2026-05-05 07:16 41.60417 30.33680 37957 ft 465 kts 282°
2026-05-05 07:16 41.61203 30.29483 37987 ft 458 kts 295°
2026-05-05 07:17 41.62617 30.25691 37980 ft 452 kts 306°
2026-05-05 07:17 41.64556 30.22483 37989 ft 445 kts 318°
2026-05-05 07:17 41.66756 30.19535 37977 ft 445 kts 317°
2026-05-05 07:18 41.70754 30.13190 37984 ft 451 kts 303°
2026-05-05 07:18 41.71995 30.09279 37994 ft 459 kts 290°
2026-05-05 07:18 41.72559 30.05011 37975 ft 466 kts 277°
2026-05-05 07:18 41.72403 30.00697 37960 ft 473 kts 264°
2026-05-05 07:19 41.71524 29.96406 38005 ft 480 kts 251°
2026-05-05 07:19 41.69955 29.92413 37979 ft 485 kts 238°
2026-05-05 07:19 41.67764 29.88933 37991 ft 489 kts 225°
2026-05-05 07:20 41.62859 29.82675 37984 ft 485 kts 237°
2026-05-05 07:20 41.61166 29.78821 37991 ft 480 kts 249°
2026-05-05 07:20 41.60131 29.74612 37996 ft 474 kts 262°
2026-05-05 07:20 41.59808 29.70279 37995 ft 466 kts 275°
2026-05-05 07:21 41.60199 29.66028 38006 ft 458 kts 288°
2026-05-05 07:21 41.60866 29.57525 38016 ft 470 kts 268°
2026-05-05 07:21 41.60148 29.53219 38006 ft 477 kts 255°
2026-05-05 07:22 41.58728 29.49172 38003 ft 482 kts 242°
2026-05-05 07:22 41.56705 29.45642 38008 ft 487 kts 229°
2026-05-05 07:22 41.54087 29.42668 37980 ft 491 kts 216°
2026-05-05 07:22 41.51095 29.40522 38026 ft 492 kts 203°
2026-05-05 07:23 41.47787 29.39213 37987 ft 493 kts 192°
2026-05-05 07:23 41.44477 29.37882 38002 ft 492 kts 204°
2026-05-05 07:23 41.41499 29.35710 38005 ft 491 kts 217°
2026-05-05 07:24 41.36038 29.30283 38005 ft 491 kts 208°
2026-05-05 07:24 41.32860 29.28557 38023 ft 492 kts 196°
2026-05-05 07:24 41.29489 29.27739 38017 ft 493 kts 183°
2026-05-05 07:24 41.26099 29.27867 38023 ft 491 kts 170°
2026-05-05 07:25 41.22768 29.28941 38005 ft 488 kts 157°
2026-05-05 07:25 41.19711 29.30888 38036 ft 483 kts 145°
2026-05-05 07:25 41.17075 29.33598 38005 ft 477 kts 131°
2026-05-05 07:25 41.14980 29.36927 38019 ft 471 kts 119°
2026-05-05 07:26 41.13334 29.40656 38027 ft 470 kts 119°
2026-05-05 07:26 41.11270 29.44055 38014 ft 478 kts 132°
2026-05-05 07:26 41.08654 29.46827 38013 ft 482 kts 144°
2026-05-05 07:26 41.05647 29.48801 38006 ft 486 kts 158°
2026-05-05 07:27 41.02332 29.49909 38016 ft 490 kts 171°
2026-05-05 07:27 40.95579 29.50749 37995 ft 492 kts 184°
2026-05-05 07:27 40.92216 29.49973 38014 ft 491 kts 197°
2026-05-05 07:28 40.89031 29.48281 38031 ft 490 kts 210°
2026-05-05 07:28 40.86234 29.45796 38019 ft 486 kts 223°
2026-05-05 07:28 40.83916 29.42622 38024 ft 481 kts 235°
2026-05-05 07:28 40.82159 29.38862 38049 ft 476 kts 248°
2026-05-05 07:29 40.81084 29.34801 38044 ft 470 kts 261°
2026-05-05 07:29 40.80707 29.30603 38021 ft 462 kts 274°
2026-05-05 07:29 40.81038 29.26432 38054 ft 454 kts 287°
2026-05-05 07:29 40.82059 29.22510 38041 ft 448 kts 300°
2026-05-05 07:30 40.83654 29.19056 38055 ft 443 kts 308°
2026-05-05 07:30 40.88900 29.09030 38045 ft 442 kts 308°
2026-05-05 07:31 40.91803 29.01834 38043 ft 454 kts 290°
2026-05-05 07:31 40.92335 28.97680 38060 ft 462 kts 277°
2026-05-05 07:31 40.92159 28.93446 38055 ft 470 kts 264°
2026-05-05 07:32 40.91877 28.85000 38045 ft 458 kts 284°
2026-05-05 07:32 40.92534 28.76583 38043 ft 460 kts 279°
2026-05-05 07:33 40.92997 28.68209 38061 ft 458 kts 278°
2026-05-05 07:33 40.93452 28.59880 38060 ft 458 kts 279°
2026-05-05 07:34 40.93903 28.51486 38048 ft 458 kts 278°
2026-05-05 07:34 40.94343 28.43161 38049 ft 456 kts 278°
2026-05-05 07:35 40.94781 28.34799 38063 ft 456 kts 278°
2026-05-05 07:35 40.95214 28.26478 38061 ft 455 kts 278°
2026-05-05 07:36 40.95648 28.18173 38063 ft 454 kts 278°
2026-05-05 07:36 40.96070 28.09839 38069 ft 453 kts 278°
2026-05-05 07:37 40.96481 28.01531 38076 ft 453 kts 278°
2026-05-05 07:37 40.96883 27.93312 38067 ft 452 kts 278°
2026-05-05 07:38 40.97282 27.85010 38069 ft 452 kts 278°
2026-05-05 07:38 40.97676 27.76714 38072 ft 453 kts 278°
2026-05-05 07:39 40.98063 27.68428 38080 ft 453 kts 278°
2026-05-05 07:39 40.98441 27.60174 38084 ft 453 kts 278°
2026-05-05 07:40 40.98820 27.51826 38076 ft 453 kts 278°
2026-05-05 07:40 40.99187 27.43564 38088 ft 452 kts 278°
2026-05-05 07:41 40.99548 27.35309 38102 ft 452 kts 278°
2026-05-05 07:41 40.99906 27.26988 38075 ft 454 kts 277°
2026-05-05 07:42 41.00258 27.18670 38054 ft 453 kts 277°
2026-05-05 07:42 41.00603 27.10399 38079 ft 453 kts 277°
2026-05-05 07:43 41.00942 27.02105 38084 ft 453 kts 277°
2026-05-05 07:43 41.01276 26.93798 38076 ft 453 kts 277°
2026-05-05 07:44 41.01604 26.85468 38078 ft 454 kts 277°
2026-05-05 07:44 41.01925 26.77189 38078 ft 453 kts 277°
2026-05-05 07:45 41.02241 26.68877 38079 ft 453 kts 277°
2026-05-05 07:45 41.02549 26.60591 38078 ft 454 kts 277°
2026-05-05 07:46 41.02855 26.52243 38086 ft 453 kts 277°
2026-05-05 07:46 41.03153 26.43923 38080 ft 454 kts 277°
2026-05-05 07:47 41.03445 26.35626 38081 ft 454 kts 277°
2026-05-05 07:47 41.03731 26.27287 38082 ft 454 kts 276°
2026-05-05 07:48 41.04012 26.18971 38084 ft 454 kts 276°
2026-05-05 07:48 41.04287 26.10635 38073 ft 454 kts 276°
2026-05-05 07:49 41.04554 26.02320 38078 ft 454 kts 276°
2026-05-05 07:49 41.04816 25.93989 38067 ft 454 kts 276°
2026-05-05 07:50 41.05073 25.85658 38070 ft 454 kts 276°
2026-05-05 07:50 41.05324 25.77306 38085 ft 453 kts 276°
2026-05-05 07:51 41.05567 25.69022 38075 ft 452 kts 276°
2026-05-05 07:51 41.05805 25.60720 38085 ft 453 kts 276°
2026-05-05 07:52 41.06036 25.52393 38086 ft 452 kts 275°
2026-05-05 07:52 41.06263 25.44091 38080 ft 451 kts 276°
2026-05-05 07:53 41.06482 25.35826 38084 ft 450 kts 275°
2026-05-05 07:53 41.06695 25.27524 38088 ft 451 kts 275°
2026-05-05 07:54 41.06902 25.19252 38093 ft 450 kts 275°
2026-05-05 07:54 41.07103 25.10975 38086 ft 450 kts 275°
2026-05-05 07:55 41.07297 25.02741 38077 ft 450 kts 275°
2026-05-05 07:55 41.07487 24.94464 38084 ft 449 kts 275°
2026-05-05 07:56 41.07670 24.86199 38081 ft 450 kts 275°
2026-05-05 07:56 41.07846 24.77964 38081 ft 450 kts 275°
2026-05-05 07:57 41.08017 24.69714 38082 ft 450 kts 275°
2026-05-05 07:57 41.08177 24.61766 38079 ft 449 kts 275°
2026-05-05 07:58 41.08336 24.53518 38083 ft 449 kts 275°
2026-05-05 07:58 41.08491 24.45208 38087 ft 450 kts 275°
2026-05-05 07:59 41.08638 24.36980 38094 ft 450 kts 275°
2026-05-05 07:59 41.08781 24.28663 38096 ft 449 kts 274°
2026-05-05 08:00 41.08917 24.20418 38108 ft 450 kts 274°
2026-05-05 08:00 41.09047 24.12130 38095 ft 450 kts 274°
2026-05-05 08:01 41.09171 24.03898 38107 ft 450 kts 274°
2026-05-05 08:01 41.09290 23.95614 38108 ft 450 kts 274°
2026-05-05 08:02 41.09402 23.87396 38114 ft 450 kts 274°
2026-05-05 08:02 41.09508 23.79138 38113 ft 449 kts 274°
2026-05-05 08:03 41.09609 23.70922 38116 ft 449 kts 274°
2026-05-05 08:03 41.09704 23.62651 38114 ft 448 kts 274°
2026-05-05 08:04 41.09792 23.54413 38111 ft 448 kts 274°
2026-05-05 08:04 41.09875 23.46167 38112 ft 448 kts 274°
2026-05-05 08:05 41.09952 23.37929 38107 ft 448 kts 274°
2026-05-05 08:05 41.10023 23.29642 38124 ft 448 kts 274°
2026-05-05 08:06 41.10088 23.21370 38121 ft 448 kts 274°
2026-05-05 08:06 41.10148 23.13124 38124 ft 448 kts 274°
2026-05-05 08:07 41.10202 23.04880 38121 ft 447 kts 274°
2026-05-05 08:07 41.10249 22.96641 38128 ft 447 kts 274°
2026-05-05 08:08 41.10289 22.88458 38121 ft 446 kts 274°
2026-05-05 08:08 41.10326 22.80211 38126 ft 446 kts 274°
2026-05-05 08:09 41.10356 22.71985 38124 ft 445 kts 274°
2026-05-05 08:09 41.10380 22.63814 38130 ft 445 kts 274°
2026-05-05 08:10 41.10397 22.55678 38134 ft 444 kts 274°
2026-05-05 08:10 41.10410 22.47496 38128 ft 443 kts 274°
2026-05-05 08:11 41.10415 22.39335 38143 ft 442 kts 274°
2026-05-05 08:11 41.10417 22.31230 38151 ft 442 kts 274°
2026-05-05 08:12 41.10412 22.23062 38158 ft 441 kts 274°
2026-05-05 08:12 41.10401 22.14955 38155 ft 440 kts 274°
2026-05-05 08:13 41.10386 22.06862 38153 ft 440 kts 274°
2026-05-05 08:13 41.10364 21.98786 38154 ft 439 kts 274°
2026-05-05 08:14 41.10336 21.90638 38153 ft 440 kts 274°
2026-05-05 08:14 41.10302 21.82535 38171 ft 440 kts 274°
2026-05-05 08:15 41.10263 21.74462 38170 ft 439 kts 274°
2026-05-05 08:15 41.10219 21.66401 38174 ft 439 kts 274°
2026-05-05 08:16 41.10169 21.58295 38171 ft 439 kts 274°
2026-05-05 08:16 41.10113 21.50195 38176 ft 439 kts 274°
2026-05-05 08:17 41.10052 21.42170 38168 ft 438 kts 274°
2026-05-05 08:17 41.09985 21.34067 38171 ft 439 kts 273°
2026-05-05 08:18 41.09912 21.25958 38170 ft 438 kts 273°
2026-05-05 08:18 41.09834 21.17876 38174 ft 439 kts 273°
2026-05-05 08:19 41.09749 21.09785 38182 ft 438 kts 273°
2026-05-05 08:19 41.09660 21.01722 38175 ft 438 kts 273°
2026-05-05 08:20 41.09565 20.93638 38174 ft 437 kts 273°
2026-05-05 08:20 41.09464 20.85609 38168 ft 437 kts 273°
2026-05-05 08:21 41.09358 20.77555 38178 ft 435 kts 273°
2026-05-05 08:21 41.09246 20.69534 38184 ft 435 kts 273°
2026-05-05 08:22 41.09129 20.61528 38184 ft 435 kts 273°
2026-05-05 08:22 41.09008 20.53523 38172 ft 433 kts 274°
2026-05-05 08:23 41.08880 20.45531 38180 ft 434 kts 274°
2026-05-05 08:23 41.08747 20.37528 38179 ft 433 kts 273°
2026-05-05 08:24 41.08608 20.29517 38184 ft 433 kts 273°
2026-05-05 08:24 41.08464 20.21561 38182 ft 431 kts 273°
2026-05-05 08:25 41.08315 20.13612 38181 ft 432 kts 273°
2026-05-05 08:25 41.08161 20.05693 38174 ft 430 kts 273°
2026-05-05 08:26 41.08002 19.97742 38159 ft 429 kts 273°
2026-05-05 08:26 41.07836 19.89781 38152 ft 430 kts 273°
2026-05-05 08:27 41.07667 19.81884 38148 ft 430 kts 273°
2026-05-05 08:27 41.07491 19.73962 38146 ft 429 kts 273°
2026-05-05 08:28 41.07312 19.66093 38143 ft 430 kts 273°
2026-05-05 08:28 41.07126 19.58207 38141 ft 429 kts 273°
2026-05-05 08:29 41.06934 19.50289 38137 ft 430 kts 273°
2026-05-05 08:30 41.06638 19.38455 38144 ft 429 kts 273°
2026-05-05 08:30 41.06434 19.30594 38146 ft 429 kts 272°
2026-05-05 08:31 41.06223 19.22691 38142 ft 428 kts 272°
2026-05-05 08:31 41.06008 19.14805 38135 ft 429 kts 272°
2026-05-05 08:32 41.05788 19.06914 38138 ft 428 kts 272°
2026-05-05 08:32 41.05562 18.99044 38132 ft 428 kts 273°
2026-05-05 08:33 41.05333 18.91209 38134 ft 429 kts 272°
2026-05-05 08:33 41.05095 18.83322 38128 ft 426 kts 272°
2026-05-05 08:34 41.04856 18.75524 38135 ft 426 kts 272°
2026-05-05 08:34 41.04611 18.67721 38142 ft 424 kts 273°
2026-05-05 08:35 41.04361 18.59893 38133 ft 424 kts 273°
2026-05-05 08:35 41.04106 18.52099 38134 ft 424 kts 273°
2026-05-05 08:36 41.03846 18.44339 38138 ft 422 kts 273°
2026-05-05 08:36 41.03583 18.36622 38130 ft 420 kts 273°
2026-05-05 08:37 41.03316 18.28942 38140 ft 422 kts 272°
2026-05-05 08:37 41.03042 18.21194 38142 ft 421 kts 272°
2026-05-05 08:38 41.02763 18.13451 38141 ft 420 kts 272°
2026-05-05 08:38 41.02481 18.05820 38135 ft 418 kts 272°
2026-05-05 08:39 41.02194 17.98128 38132 ft 418 kts 273°
2026-05-05 08:39 41.01903 17.90467 38135 ft 417 kts 272°
2026-05-05 08:40 41.01607 17.82828 38130 ft 418 kts 272°
2026-05-05 08:40 41.01306 17.75212 38130 ft 416 kts 272°
2026-05-05 08:41 41.00998 17.67534 38131 ft 416 kts 273°
2026-05-05 08:41 41.00687 17.59889 38127 ft 416 kts 272°